                ,  0.290,  0.386,  0.483,  0.580,  0.676,  0.773,  0.869,  0.966,  1.063,  1.159,  1.256,  1.352,  1.449,  1.545,  1.642,  1.739,  1.835,  1.932,  2.028,  2.125,  2.222,  2.318,  2.415,  2.511,  2.608,  2.705,  2.801,  2.898,  2.994,  3.091,  3.188,  3.284,  3.381,  3.477,  3.574,  3.671,  3.767,  3.864,  3.960,  4.057,  4.153,  4.250,  4.347,  4.443,  4.540,  4.636,  4.733,  4.830,  4.926,  5.023,  5.119,  5.216,  5.313,  5.409,  5.506,  5.602,  5.699,  5.796
2000/11/23 00:00,  999.0,  999.0,    6.6,    9.3,    9.9,    9.1,   11.7,   11.9,   12.5,  999.0,  999.0,  999.0,  999.0,  999.0,  999.0,  999.0,  999.0,  999.0,  999.0,   17.6,  999.0,   15.3,  999.0,  999.0,  999.0,  999.0,  999.0,    8.3,    7.1,  999.0,  999.0,  999.0,  999.0,    1.0,  999.0,  999.0,  999.0,  999.0,  999.0,  999.0,    0.5,  999.0,  999.0,  999.0,  999.0,    0.7,  999.0,  999.0,    0.8,   -0.0,    1.3,    0.9,  999.0,    1.2,  999.0,  999.0,  999.0,    0.9
2000/11/23 00:10,  999.0,    7.0,    5.7,    9.2,    5.2,    9.2,   11.3,   11.7,   12.6,   12.8,   12.4,   10.8,   10.6,   11.3,  999.0,  999.0,   11.6,  999.0,  999.0,  999.0,  999.0,  999.0,   14.3,   13.3,   13.0,  999.0,   10.4,   10.5,  999.0,    7.6,    7.1,    6.5,    5.9,    4.0,    3.8,    1.8,    3.4,    2.0,    1.6,  999.0,    0.7,    0.6,    1.2,  999.0,    0.0,    0.6,    0.8,    0.2,    0.7,    0.8,    0.6,    1.3,    1.2,    1.6,    0.6,    0.2,  999.0,    1.6
2000/11/23 00:20,  999.0,    6.8,    8.3,    5.3,    9.0,    9.3,   10.2,   11.0,   11.6,   11.4,   11.3,   10.5,    9.7,   10.8,  999.0,   11.0,   11.7,  999.0,  999.0,  999.0,  999.0,  999.0,  999.0,   13.4,  999.0,    9.5,    9.8,  999.0,    0.9,    4.8,    5.5,    6.4,    3.1,    4.5,    0.2,    1.3,    1.1,   -0.4,    1.0,    1.1,    0.5,    0.5,    0.4,    0.9,    0.8,    1.1,    0.8,    0.8,    0.0,    1.3,    0.9,    0.5,    1.4,    1.0,  999.0,    1.1,    0.4,    0.7
2000/11/23 00:30,  999.0,    7.6,  999.0,   10.2,    9.4,  999.0,    9.0,   10.2,   11.5,   11.2,  999.0,    9.4,    9.2,   10.2,   11.0,   10.8,   10.4,   10.5,  999.0,  999.0,  999.0,  999.0,  999.0,  999.0,    9.5,    8.4,    6.8,    5.2,    4.1,    3.3,    2.2,    0.4,    0.8,    1.0,  999.0,    0.7,  999.0,    1.0,    0.4,    1.4,    0.9,    0.4,    0.8,    0.8,    1.2,    1.1,    1.1,    0.6,    0.7,    1.2,    1.2,  999.0,    0.5,    0.4,    0.2,    0.8,    0.7,    0.5
2000/11/23 00:40,  999.0,    8.0,    8.5,   14.1,    7.1,    9.5,   10.1,    9.4,   10.1,   10.7,   11.1,   10.6,   10.0,   10.2,   10.3,   10.9,   10.6,   10.1,  999.0,    7.7,    6.6,  999.0,  999.0,  999.0,  999.0,  999.0,    5.7,    4.8,    3.6,    0.8,    1.3,    0.9,    1.2,    0.8,    0.9,  999.0,    0.6,    0.6,  999.0,    0.7,    0.3,    0.6,    0.3,    0.5,    0.5,    0.9,    1.0,  999.0,    0.9,    0.9,    0.4,    1.1,    0.9,    0.9,    0.6,    0.6,    1.0,    0.7
2000/11/23 00:50,  999.0,    7.6,    8.8,    6.8,    9.2,    8.0,   10.2,   10.1,   10.3,   10.6,   10.6,    9.5,    9.2,    9.8,    9.9,    9.8,    8.3,   10.8,    8.8,   -0.3,   -2.4,  999.0,  999.0,  999.0,  999.0,  999.0,    4.0,  999.0,    1.0,    0.9,    1.1,    0.7,  999.0,    0.8,    1.4,  999.0,    1.0,    0.8,    0.7,  999.0,    0.7,    0.8,    0.3,    0.8,   -0.2,    0.6,    2.0,    0.8,    1.0,    0.5,    0.8,    0.9,    0.6,    1.1,    0.7,    1.7,    0.9,    0.3
2000/11/23 01:00,  999.0,    6.1,    7.2,    9.4,    9.1,    8.7,    9.9,   10.2,   10.5,   10.9,   10.6,    8.9,    8.6,    9.4,  999.0,   11.5,   10.2,   11.2,   12.5,  999.0,  999.0,   17.6,   14.6,   15.0,   12.3,   11.3,   10.7,    6.4,    7.3,    4.4,    4.2,    2.3,  999.0,    0.9,    1.5,  999.0,    1.1,    0.5,    0.4,    0.2,    0.1,  999.0,    0.4,    0.6,    0.4,    0.1,   -0.2,  999.0,    0.4,   -0.0,    0.5,   -0.0,    0.3,  999.0,    0.2,  999.0,    0.3,   -0.0
2000/11/23 01:10,  999.0,    5.6,    7.1,    7.7,    8.4,    8.8,    9.3,    9.9,    9.5,    9.8,  999.0,    9.3,    9.1,    9.8,   10.2,   11.1,   10.0,   10.7,   10.8,   10.0,  999.0,  999.0,  999.0,  999.0,  999.0,  999.0,  999.0,  999.0,  999.0,  999.0,    3.5,    2.5,    0.9,    1.4,    0.4,    0.7,  999.0,    0.8,    0.3,  999.0,  999.0,  999.0,    0.4,    1.1,  999.0,    0.3,    0.8,  999.0,  999.0,    0.8,  999.0,  999.0,    0.8,  999.0,  999.0,    1.0,  999.0,  999.0
2000/11/23 01:20,  999.0,    7.9,    9.5,    9.2,    9.9,    9.6,   10.1,   10.1,    9.3,    9.9,    9.8,    8.5,   11.1,    9.8,   11.2,   12.7,   10.8,   11.0,   10.8,  999.0,  999.0,  999.0,  999.0,  999.0,  999.0,  999.0,  999.0,  999.0,  999.0,  999.0,  999.0,  999.0,  999.0,  999.0,  999.0,  999.0,  999.0,  999.0,  999.0,  999.0,  999.0,  999.0,  999.0,  999.0,  999.0,  999.0,  999.0,  999.0,  999.0,  999.0,  999.0,  999.0,  999.0,  999.0,  999.0,  999.0,  999.0,  999.0
2000/11/23 01:30,  999.0,  999.0,    8.9,    9.9,    9.8,   10.4,    9.8,    9.5,    8.3,    7.9,    7.8,    8.1,    8.9,   10.3,   11.1,   11.5,   11.2,    9.8,    9.9,  999.0,  999.0,  999.0,  999.0,  999.0,  999.0,  999.0,  999.0,  999.0,  999.0,  999.0,  999.0,  999.0,  999.0,  999.0,  999.0,  999.0,  999.0,  999.0,  999.0,  999.0,  999.0,  999.0,  999.0,  999.0,  999.0,  999.0,  999.0,  999.0,  999.0,   21.9,  999.0,   25.5,  999.0,  999.0,   30.7,   32.5,   34.1,   35.9
2000/11/23 01:40,  999.0,  999.0,    8.9,    7.4,    8.0,    8.8,    9.3,    8.2,    7.5,    6.8,    8.3,    7.9,    8.7,   10.3,   11.0,  999.0,  999.0,  999.0,  999.0,  999.0,  999.0,  999.0,  999.0,  999.0,  999.0,  999.0,  999.0,  999.0,  999.0,  999.0,   13.0,  999.0,  999.0,  999.0,   10.3,  999.0,    9.5,  999.0,  999.0,    7.4,    5.8,    5.7,  999.0,    4.5,  999.0,    3.4,    2.9,    1.6,    0.2,    0.6,    0.8,  999.0,  999.0,    0.6,  999.0,    0.3,    0.7,    0.5
2000/11/23 01:50,  999.0,  999.0,    8.2,    8.0,    8.7,    8.2,    8.2,    8.4,    7.3,    7.7,    8.2,    8.9,    9.7,   10.8,   12.5,  999.0,  999.0,  999.0,  999.0,  999.0,  999.0,  999.0,  999.0,   17.5,  999.0,  999.0,   12.5,  999.0,  999.0,    9.5,  999.0,  999.0,    9.2,    7.9,    5.8,    7.1,  999.0,    3.0,  999.0,  999.0,    3.1,    2.9,    4.4,    3.4,    3.0,    2.6,    1.1,    0.6,    0.2,    0.3,    0.5,    0.7,  999.0,    1.1,    1.1,    1.3,    0.9,    1.7
2000/11/23 02:00,  999.0,   11.4,   10.0,   10.6,    8.7,    8.4,    8.7,    8.9,    8.0,    8.9,    8.2,    9.3,  999.0,  999.0,  999.0,  999.0,  999.0,  999.0,  999.0,  999.0,  999.0,   16.8,   15.7,   16.9,   15.8,   14.7,   14.5,   12.4,    7.0,    9.1,   10.4,    8.9,    8.4,    7.1,    5.7,    4.9,    4.3,    6.7,    2.3,    1.9,    1.0,    1.2,    0.6,    1.1,    0.5,    0.6,    1.0,    1.1,    0.6,  999.0,    0.3,    0.7,    0.5,  999.0,  999.0,    1.1,    1.5,  999.0
2000/11/23 02:10,  999.0,    7.6,    8.9,    7.7,    8.5,    8.9,   10.4,    8.9,    8.6,    8.7,    8.6,    8.4,    8.5,  999.0,  999.0,  999.0,  999.0,  999.0,  999.0,  999.0,  999.0,  999.0,   15.2,   13.1,    8.8,   11.3,   11.1,    8.2,    9.5,    6.8,    5.7,  999.0,    2.8,    0.6,    3.0,    1.2,    1.4,    1.3,    1.7,    0.4,    0.4,    0.3,    1.7,    1.1,    0.6,    0.4,    0.7,    0.7,   -0.3,    0.5,    0.5,  999.0,    0.8,    0.3,    0.0,    0.3,    0.6,  999.0
2000/11/23 02:20,  999.0,  999.0,  999.0,  999.0,    7.7,    7.5,    8.2,    8.6,    8.1,    7.3,    6.7,    7.3,    8.9,    9.9,   10.4,  999.0,  999.0,  999.0,    8.2,  999.0,  999.0,   16.3,  999.0,   12.9,  999.0,   13.4,   10.3,    9.9,    7.9,    6.9,    5.7,    4.3,  999.0,    1.9,    0.7,    0.8,  999.0,    0.4,    0.3,  999.0,    0.7,  999.0,  999.0,    1.0,    0.2,    1.0,  999.0,    0.9,    0.6,    0.3,  999.0,  999.0,    1.1,  999.0,    0.6,    1.3,  999.0,   -0.0
2000/11/23 02:30,  999.0,  999.0,  999.0,    7.3,    9.5,    9.0,    9.5,    8.6,    8.6,    8.2,    8.5,    9.7,    9.5,   10.9,   11.7,    8.8,  999.0,  999.0,  999.0,  999.0,  999.0,  999.0,  999.0,  999.0,  999.0,  999.0,  999.0,  999.0,    7.4,  999.0,  999.0,  999.0,  999.0,  999.0,    1.4,  999.0,    0.3,  999.0,    0.8,    0.2,  999.0,  999.0,  999.0,    0.4,  999.0,  999.0,  999.0,    1.0,    1.3,  999.0,  999.0,  999.0,  999.0,  999.0,    0.2,  999.0,    1.3,  999.0
2000/11/23 02:40,  999.0,  999.0,    5.0,    7.0,    8.2,    9.1,    8.5,    8.2,    9.1,  999.0,  999.0,    8.9,    9.8,  999.0,  999.0,    8.5,  999.0,  999.0,  999.0,  999.0,  999.0,  999.0,  999.0,  999.0,  999.0,  999.0,  999.0,  999.0,  999.0,  999.0,  999.0,  999.0,  999.0,  999.0,  999.0,  999.0,  999.0,  999.0,  999.0,  999.0,  999.0,  999.0,  999.0,  999.0,  999.0,  999.0,  999.0,  999.0,  999.0,  999.0,  999.0,  999.0,  999.0,  999.0,  999.0,  999.0,  999.0,  999.0
2000/11/23 02:50,  999.0,    8.3,    5.4,    6.3,    8.1,    9.6,    8.9,    8.7,    9.5,    9.2,    9.3,    9.4,   10.6,  999.0,  999.0,  999.0,  999.0,  999.0,  999.0,  999.0,  999.0,  999.0,  999.0,  999.0,    4.9,  999.0,    5.8,    1.6,    1.7,    1.6,    0.6,    1.2,    1.3,    1.3,    0.3,    0.8,    0.4,    0.1,    0.5,    0.3,    0.4,  999.0,    0.6,    0.8,    1.1,    1.1,    0.0,    0.7,    0.7,    0.1,    0.5,    0.6,  999.0,  999.0,   -0.0,    0.8,  999.0,    0.9
2000/11/23 03:00,  999.0,    4.3,    6.4,    7.6,    7.8,    8.1,    8.5,    9.2,    9.8,   10.4,   10.0,    9.2,   11.0,  999.0,  999.0,  999.0,  999.0,  999.0,  999.0,  999.0,  999.0,   14.4,   12.1,   12.3,   10.8,    8.5,    7.6,    5.4,    2.2,    2.5,    3.1,    1.3,    1.0,    0.5,    0.7,    0.2,    0.9,    1.5,    0.6,  999.0,  999.0,  999.0,    1.4,  999.0,    0.4,    0.4,    0.9,    0.8,    0.4,    0.6,    0.1,    0.7,    0.6,  999.0,    0.4,    0.4,    1.0,    1.3
2000/11/23 03:10,  999.0,    7.6,    6.6,    6.9,    8.3,    8.3,    8.7,    9.6,    9.6,    9.9,  999.0,  999.0,    8.9,    9.9,  999.0,  999.0,  999.0,  999.0,  999.0,  999.0,  999.0,   15.1,   13.6,   11.8,    8.8,    9.7,    7.8,    6.8,    6.3,    4.7,    4.7,    3.5,    3.9,    1.4,    0.8,    0.9,    0.8,  999.0,    0.8,  999.0,    0.8,  999.0,    0.5,    0.6,    0.6,    0.6,    0.6,    0.8,    1.1,    0.5,    0.3,    0.7,    0.5,    0.5,    0.6,    0.6,    0.6,    0.1
2000/11/23 03:20,  999.0,  999.0,    7.4,    8.9,    7.7,    8.3,    8.9,   10.1,   10.7,  999.0,    8.1,  999.0,  999.0,  999.0,  999.0,  999.0,  999.0,  999.0,   17.7,  999.0,  999.0,   13.5,   13.6,   11.2,   10.5,    9.5,   10.1,    7.7,    6.5,    5.9,    4.4,    5.3,    2.4,    1.3,    1.1,    1.6,    1.1,    0.6,    0.6,  999.0,    0.8,    1.1,    0.9,    0.9,    0.6,    0.8,    1.1,    0.5,    1.1,    1.0,    0.7,    0.7,  999.0,    1.8,    0.7,    0.9,    0.7,    1.1
2000/11/23 03:30,  999.0,  999.0,    8.7,    6.9,  999.0,    5.6,    8.2,    8.4,    8.3,    8.1,    9.8,   10.5,  999.0,  999.0,  999.0,  999.0,  999.0,  999.0,  999.0,  999.0,   16.3,   15.4,   13.0,   11.6,  999.0,   10.8,    8.4,  999.0,    7.5,    6.3,    3.8,    4.0,    2.1,    1.2,    0.6,    0.5,    0.1,    0.6,    0.3,    0.3,    0.9,    0.3,    0.9,  999.0,    0.8,    0.6,    0.8,    0.8,    0.7,  999.0,    0.7,    0.9,    0.9,  999.0,    0.6,    1.7,    0.8,    1.5
2000/11/23 03:40,  999.0,    7.7,  999.0,    7.3,    6.6,    6.3,    7.8,    8.2,    8.0,  999.0,    7.9,    9.5,   10.9,    8.7,  999.0,  999.0,  999.0,  999.0,  999.0,  999.0,  999.0,   14.6,   13.2,   12.0,  999.0,   10.1,  999.0,    7.1,    5.5,  999.0,  999.0,  999.0,  999.0,   -0.1,    0.6,  999.0,    0.6,  999.0,  999.0,  999.0,   -0.0,    0.7,  999.0,  999.0,  999.0,  999.0,  999.0,    0.7,    0.7,  999.0,    0.3,  999.0,    0.8,    0.0,   -0.4,    0.7,    0.9,   -0.0
2000/11/23 03:50,  999.0,  999.0,  999.0,    6.9,    6.4,    7.9,    8.7,    9.5,  999.0,    9.3,    9.2,    9.5,    9.2,    9.9,  999.0,    9.9,  999.0,  999.0,  999.0,  999.0,  999.0,  999.0,  999.0,  999.0,  999.0,  999.0,  999.0,  999.0,  999.0,  999.0,  999.0,  999.0,  999.0,  999.0,  999.0,  999.0,  999.0,  999.0,  999.0,  999.0,  999.0,  999.0,  999.0,  999.0,  999.0,  999.0,  999.0,  999.0,  999.0,  999.0,  999.0,  999.0,  999.0,  999.0,  999.0,  999.0,  999.0,  999.0
2000/11/23 04:00,  999.0,  999.0,  999.0,    7.5,    6.5,    7.0,    8.5,    9.7,   11.1,    9.3,    7.4,    8.5,    9.0,    8.8,   10.0,  999.0,  999.0,  999.0,  999.0,  999.0,  999.0,  999.0,  999.0,  999.0,   21.3,  999.0,  999.0,   21.4,   20.5,  999.0,  999.0,  999.0,  999.0,  999.0,   21.4,  999.0,   21.6,  999.0,  999.0,   21.7,  999.0,  999.0,  999.0,  999.0,  999.0,  999.0,  999.0,  999.0,  999.0,  999.0,  999.0,  999.0,  999.0,  999.0,  999.0,  999.0,  999.0,  999.0
2000/11/23 04:10,  999.0,  999.0,    4.7,    6.6,    7.1,    7.6,    8.1,    8.8,    9.4,    9.0,  999.0,    9.0,  999.0,  999.0,    9.0,    9.0,    9.3,   10.1,  999.0,    9.8,  999.0,  999.0,  999.0,  999.0,  999.0,  999.0,  999.0,  999.0,  999.0,  999.0,  999.0,  999.0,  999.0,  999.0,  999.0,  999.0,  999.0,  999.0,  999.0,  999.0,  999.0,  999.0,  999.0,  999.0,  999.0,  999.0,  999.0,  999.0,  999.0,  999.0,  999.0,  999.0,  999.0,  999.0,  999.0,  999.0,  999.0,  999.0
2000/11/23 04:20,  999.0,    4.7,    1.6,    6.9,    6.5,    6.6,    7.8,    8.3,    9.0,    8.8,    8.2,    7.9,    8.8,    9.2,    9.4,    9.1,   10.9,   11.5,   12.7,   14.6,   15.1,  999.0,  999.0,  999.0,  999.0,   19.1,  999.0,  999.0,  999.0,  999.0,  999.0,   14.0,  999.0,  999.0,  999.0,  999.0,   10.7,  999.0,  999.0,    8.6,  999.0,    7.3,  999.0,  999.0,  999.0,  999.0,    3.1,  999.0,  999.0,    1.5,  999.0,  999.0,  999.0,  999.0,  999.0,  999.0,  999.0,  999.0
2000/11/23 04:30,  999.0,  999.0,  999.0,  999.0,  999.0,    5.2,    7.2,    7.6,    7.5,    8.0,  999.0,    7.6,    8.1,    7.9,  999.0,    8.1,    9.4,   10.3,   11.9,   13.2,  999.0,  999.0,  999.0,  999.0,  999.0,   15.9,  999.0,  999.0,   13.5,  999.0,  999.0,  999.0,  999.0,  999.0,    9.8,  999.0,  999.0,    8.5,  999.0,    6.5,  999.0,  999.0,  999.0,    4.2,  999.0,    3.6,  999.0,  -36.7,  999.0,  -37.7,  999.0,  999.0,  999.0,  999.0,  999.0,  -41.8,  999.0,  999.0
2000/11/23 04:40,  999.0,  999.0,  999.0,    6.1,    5.6,    7.2,    7.3,    7.6,    7.0,    7.4,    8.1,    7.4,    7.3,    7.9,  999.0,    9.1,    9.7,   10.0,   10.9,  999.0,  999.0,  999.0,  999.0,  999.0,  999.0,  999.0,  999.0,  999.0,  999.0,  999.0,  999.0,  999.0,  999.0,  999.0,  999.0,  999.0,  999.0,  999.0,  999.0,  999.0,  999.0,  999.0,  999.0,  999.0,  -41.9,  -42.5,  999.0,  -41.7,  -42.1,  -41.7,  -42.0,  999.0,  -42.1,  999.0,  -43.1,  -42.2,  -41.7,  -42.9
2000/11/23 04:50,  999.0,    4.9,    6.2,    7.1,    8.9,    4.0,    8.5,  999.0,    7.6,    7.6,    8.3,    8.8,    8.4,    7.7,    8.2,    9.4,    9.0,   10.2,  999.0,  999.0,  999.0,  999.0,  999.0,  999.0,  999.0,  999.0,  999.0,  999.0,  999.0,  999.0,  999.0,  999.0,  999.0,  999.0,  999.0,  999.0,  999.0,  999.0,  999.0,  999.0,  999.0,  999.0,  999.0,  999.0,  999.0,  999.0,  999.0,  999.0,  999.0,  999.0,  999.0,  999.0,  999.0,  999.0,  999.0,  999.0,  999.0,  999.0
2000/11/23 05:00,  999.0,    7.9,    8.0,    3.7,    5.8,    6.1,    7.6,    8.8,    8.5,    7.7,    7.5,    6.8,    7.7,    7.4,    7.5,    7.6,    7.5,  999.0,  999.0,  999.0,  999.0,  999.0,  999.0,  999.0,  999.0,  999.0,  999.0,  999.0,  999.0,  999.0,  999.0,    1.1,    0.3,  999.0,  999.0,    0.3,  999.0,  999.0,  999.0,    1.1,  999.0,  999.0,  999.0,  999.0,  999.0,  999.0,  999.0,  999.0,  999.0,  999.0,  999.0,  999.0,  999.0,  999.0,  999.0,  999.0,  999.0,  999.0
2000/11/23 05:10,  999.0,    4.4,  999.0,    6.6,    7.1,    8.1,    9.6,  999.0,    9.1,    6.4,    6.9,    7.4,    8.0,    9.3,    8.5,    8.1,  999.0,  999.0,  999.0,  999.0,  999.0,  999.0,  999.0,  999.0,  999.0,  999.0,  999.0,  999.0,   32.9,   34.0,   34.1,   35.3,  999.0,   37.5,   38.3,   39.9,   41.1,   37.9,   41.8,   40.7,   41.8,   41.8,   42.3,   42.1,  999.0,  999.0,  999.0,  999.0,  999.0,  999.0,  999.0,  999.0,  999.0,  999.0,  999.0,  999.0,  999.0,  999.0
2000/11/23 05:20,  999.0,    6.8,    8.1,    5.4,    7.2,    8.0,  999.0,  999.0,    6.3,  999.0,    6.9,    7.9,    8.9,  999.0,    8.5,  999.0,  999.0,  999.0,  999.0,  999.0,  999.0,  999.0,   22.2,   24.0,   25.5,   27.1,   27.5,  999.0,   28.2,   31.5,  999.0,   31.5,   33.6,   33.3,   35.0,   35.6,   38.1,  999.0,   39.5,   39.3,   41.7,   40.0,   42.2,   41.6,  999.0,  999.0,   40.6,   41.5,  999.0,  999.0,  999.0,   41.6,  999.0,   41.2,  999.0,  999.0,  999.0,  999.0
2000/11/23 05:30,  999.0,    3.8,    5.2,    6.8,    7.5,    8.4,  999.0,    7.6,    7.5,    7.1,    8.0,    8.7,    8.5,    8.4,    8.2,  999.0,    8.5,  999.0,  999.0,  999.0,  999.0,   25.6,   26.4,   28.2,   26.4,   31.0,   29.5,   29.5,   32.7,   31.7,   33.9,   35.7,   37.9,   35.9,   38.6,   41.0,   40.6,   39.4,   41.2,   40.7,   41.6,   41.7,   41.7,   41.9,   41.8,  999.0,   41.9,   41.6,   41.8,   42.2,  999.0,   42.0,   41.2,   42.2,   40.9,   41.7,   42.0,  999.0
2000/11/23 05:40,  999.0,    5.7,    5.3,    5.1,    7.0,  999.0,   10.3,    8.0,    7.0,    6.7,    8.1,    8.0,    8.9,    8.2,    7.2,    8.8,  999.0,  999.0,  999.0,  999.0,  999.0,   28.3,   29.9,   31.0,   32.0,   35.2,   35.0,   38.0,   37.8,   40.5,   35.0,   38.9,   36.9,   41.9,   40.9,   41.1,   41.0,   41.1,   42.2,   42.0,   42.1,   42.2,   42.0,   42.3,   42.0,   42.1,   42.3,   42.2,   41.8,   42.2,  999.0,   42.2,   42.2,   42.5,  999.0,   42.1,   40.8,  999.0
2000/11/23 05:50,  999.0,    6.4,    4.5,    5.1,    6.2,    7.7,    8.2,    8.4,    7.5,    7.1,    7.3,    8.6,    8.8,    7.8,    8.1,    9.0,    9.1,  999.0,   14.4,  999.0,  999.0,   24.2,   24.8,   26.1,   17.5,   28.6,    2.7,   30.0,  999.0,   16.8,   32.6,   17.2,   34.8,   36.4,  999.0,  999.0,   38.9,  999.0,   34.8,   42.5,   36.4,   41.2,   42.1,   40.2,   41.6,   41.7,   42.5,   42.1,   42.2,   41.6,   41.7,   23.2,   41.7,   33.1,   42.1,   35.8,   32.3,   41.7
2000/11/23 06:00,  999.0,    3.3,    1.9,    6.0,    6.0,    6.7,    7.9,    8.0,    7.9,    7.4,    7.7,    7.9,    8.3,    8.1,    7.4,    8.1,    8.8,  999.0,  999.0,   26.4,  999.0,  999.0,   33.3,   25.3,   34.9,  999.0,   42.0,   39.0,   41.6,   38.6,   39.2,   42.3,   42.1,   38.8,   36.6,   42.0,   40.8,   41.5,   41.1,   41.8,  999.0,   41.8,   41.9,   42.1,   42.2,   42.2,   42.0,   41.9,   42.4,   42.4,   42.0,   42.0,   42.5,   42.1,   42.4,   41.6,   41.3,   41.7
2000/11/23 06:10,  999.0,    1.7,    4.3,    5.4,    6.5,    7.5,    7.3,    7.9,    7.9,    7.2,    7.5,    7.7,    7.9,    7.8,    7.7,    6.9,  999.0,  999.0,   23.3,   24.4,  999.0,   27.1,   27.1,   27.6,   30.1,  999.0,   31.2,   31.8,   31.1,   34.3,   34.3,   36.2,   37.5,  999.0,   38.7,   38.5,   37.5,   38.0,   40.8,   41.3,   42.2,   41.7,   41.8,   41.9,   42.1,   41.9,   42.2,   42.4,   42.0,   42.3,   42.4,   42.3,  999.0,   42.0,   41.7,  999.0,   41.5,   41.9
2000/11/23 06:20,  999.0,   -2.2,    1.9,    5.0,    7.0,    7.8,    7.6,    9.1,    8.0,    7.4,    7.5,    7.6,    7.7,    7.3,    8.3,  999.0,  999.0,  999.0,  999.0,   24.3,  999.0,   26.2,   26.2,   27.2,   28.6,   29.0,   30.0,   30.9,   32.7,   32.9,   34.2,   35.5,   36.1,   36.8,   37.9,  999.0,   39.6,   40.7,   41.7,  999.0,  999.0,   41.3,   42.2,   42.4,   42.1,   42.6,   42.0,  999.0,   41.7,   42.1,   43.1,   43.2,   42.0,   41.6,  999.0,   42.6,   42.2,   41.8
2000/11/23 06:30,  999.0,    1.5,    3.4,    5.2,    6.3,    6.9,    6.6,    7.1,    7.3,    7.6,    7.6,    7.3,    7.2,    7.1,    7.4,  999.0,  999.0,  999.0,   23.5,   24.5,   25.4,   26.3,   27.2,   28.1,   29.6,   30.4,   31.4,   32.4,   32.9,   35.0,   34.3,   36.3,   37.1,   38.2,   38.6,   39.9,   40.2,   42.4,   41.0,   41.9,   41.5,   41.8,   41.6,   42.0,   41.5,   41.7,   42.0,   41.9,   42.1,   42.4,  999.0,   42.1,   42.0,   41.7,   41.4,   42.6,   41.1,   41.0
2000/11/23 06:40,  999.0,  999.0,    4.2,    6.4,    8.2,    6.5,    7.9,    6.8,    7.4,    7.6,    7.2,    8.2,    7.3,    6.8,    6.8,  999.0,    9.6,  999.0,   22.9,   22.7,  999.0,  999.0,   26.4,   27.4,  999.0,   28.3,   29.4,   32.8,   31.7,  999.0,  999.0,   34.5,   35.3,   38.9,   37.7,  999.0,   40.6,   39.9,   41.1,   41.5,  999.0,   41.8,   42.2,  999.0,  999.0,   41.8,   41.7,   41.9,   41.6,  999.0,   42.1,   41.4,   42.0,   42.0,  999.0,   41.7,   42.0,  999.0
2000/11/23 06:50,  999.0,  999.0,    4.9,    5.3,    6.7,    6.7,    6.5,    6.5,    6.8,    7.2,    6.5,    7.3,    8.0,    8.2,    7.7,    8.2,    9.7,    9.3,  999.0,  999.0,  999.0,  999.0,   27.1,  999.0,   29.1,   30.2,   32.0,   32.7,  999.0,   34.5,  999.0,   37.0,   37.4,   38.3,   39.9,   40.9,   41.6,   41.9,   42.0,   41.5,  999.0,   42.0,   41.4,   42.2,   42.2,   42.5,   42.7,   41.8,   42.8,   41.5,   42.2,   42.1,   42.1,   41.7,   41.2,   42.7,   41.9,   40.9
2000/11/23 07:00,  999.0,    3.1,    5.1,    6.5,    6.7,    8.1,    7.8,    7.3,    6.4,    7.1,    7.7,    7.7,    7.9,    8.4,    9.3,    8.6,  999.0,  999.0,  999.0,  999.0,  999.0,  999.0,   30.4,  999.0,  999.0,   33.6,  999.0,   36.7,   38.2,  999.0,   41.5,   42.2,   41.9,   41.6,   42.0,   42.1,   42.1,   41.9,   41.8,  999.0,  999.0,  999.0,   42.0,   41.7,   42.1,   41.5,  999.0,  999.0,   42.5,  999.0,   42.5,  999.0,   42.2,   42.0,   42.1,   42.4,   41.8,  999.0
2000/11/23 07:10,  999.0,    2.6,    5.4,    6.3,    6.5,    7.1,    7.5,    7.4,    7.4,    7.5,    7.0,    7.4,    8.7,    9.5,    8.7,    7.5,  999.0,  999.0,  999.0,  999.0,  999.0,  999.0,  999.0,  999.0,   35.2,   37.7,   35.7,   36.8,   37.8,   39.1,   40.0,   40.8,   40.8,   41.5,   42.8,   41.9,   41.4,  999.0,   42.1,   42.1,   42.2,   42.3,   42.1,   42.1,   42.2,   42.3,   42.1,   42.6,   41.6,   42.2,   42.3,   41.8,   42.0,   41.3,   42.4,   42.1,   41.0,   41.6
2000/11/23 07:20,  999.0,    3.2,    4.8,    5.8,    6.6,    6.1,    6.3,    8.0,    8.1,    7.2,    7.6,    7.9,    8.4,  999.0,  999.0,  999.0,  999.0,  999.0,  999.0,  999.0,  999.0,  999.0,   29.4,   30.8,   32.2,   32.5,   34.3,   35.4,   37.1,   37.7,   38.9,   41.0,   41.9,   41.6,   41.7,   42.5,   41.9,   42.1,   41.9,  999.0,   42.3,  999.0,   41.3,   41.9,   40.9,   42.0,   41.6,   42.0,   41.7,   42.5,   41.8,   41.6,   41.5,   41.7,   41.6,   41.7,   41.5,   42.4
2000/11/23 07:30,  999.0,    0.4,    3.9,    5.8,    6.6,    7.2,    7.8,    8.6,    8.0,    7.1,    7.4,    9.9,  999.0,  999.0,  999.0,  999.0,   12.6,  999.0,  999.0,   25.2,   28.2,   29.8,   31.4,  999.0,   33.9,   35.7,   37.8,   37.6,   39.6,  999.0,   41.8,   40.3,   41.7,   41.9,   41.9,   41.8,   42.1,   42.5,  999.0,   41.5,   41.8,   42.1,  999.0,   41.3,   41.7,   41.4,   42.0,  999.0,   41.5,   42.2,   41.8,   42.4,   41.0,   41.7,   41.3,   42.0,   42.0,   42.2
2000/11/23 07:40,  999.0,    2.6,    4.4,    6.4,    6.0,    7.4,    7.4,    7.8,    8.3,    8.1,    8.1,    8.5,  999.0,  999.0,  999.0,  999.0,  999.0,  999.0,   25.9,   26.7,   29.2,   30.2,   31.7,   32.4,   35.2,   35.5,   38.2,   38.6,   39.6,   40.0,   41.3,   42.0,  999.0,  999.0,   41.7,   41.9,   41.3,   42.2,   41.4,   41.3,   41.9,   42.1,   41.6,   41.3,   41.8,   41.7,   41.7,   41.7,   41.6,   41.9,   41.9,   41.3,   42.2,   42.0,   41.6,   41.3,   41.9,   41.5
2000/11/23 07:50,  999.0,    5.1,    6.2,    6.6,    7.8,    8.7,    9.7,    9.9,    9.5,    9.1,    9.7,  999.0,  999.0,    8.0,    8.0,  999.0,  999.0,  999.0,   28.3,   29.8,   30.1,  999.0,   33.2,   34.2,   35.5,   36.6,   37.5,   40.2,   40.1,   41.1,   41.1,   41.7,   42.5,   41.5,   41.7,   41.1,   41.9,   42.3,  999.0,   41.4,   41.3,   41.8,  999.0,   41.7,   41.6,   41.9,   42.5,   41.5,  999.0,   41.4,   42.1,  999.0,   41.4,   41.7,  999.0,   41.4,   41.8,   42.2
2000/11/23 08:00,  999.0,    5.2,    6.6,    5.2,    5.7,    6.9,    9.3,    9.7,    9.5,    8.8,    7.6,    7.2,    8.3,    7.6,    8.5,  999.0,  999.0,  999.0,  999.0,  999.0,   29.4,   31.5,  999.0,  999.0,   35.6,   37.3,   38.9,  999.0,   41.9,   42.2,   41.9,   41.7,   41.5,  999.0,   41.6,   41.5,   41.5,   41.6,   41.8,   42.3,   41.9,   41.4,   42.3,   41.9,   42.4,  999.0,   42.0,   41.8,   41.7,   41.8,   41.9,   41.9,   41.6,   41.8,   42.0,   41.5,   42.3,   41.7
2000/11/23 08:10,  999.0,    5.5,    3.6,    6.2,    7.9,    8.7,    9.7,   10.0,    9.6,    8.5,    8.0,    7.9,    7.8,    7.7,    7.7,  999.0,  999.0,  999.0,  999.0,  999.0,  999.0,  999.0,  999.0,   34.9,   36.8,   38.6,   38.9,   42.2,   41.8,   42.3,   42.0,   42.4,   42.2,   41.8,   41.7,  999.0,   42.1,   42.0,   42.0,   41.9,   41.8,   42.3,   41.7,   41.5,   41.7,   41.6,   42.2,   42.2,  999.0,   41.6,   41.5,   42.0,   41.8,   41.5,   41.8,   41.9,   41.3,   42.1
2000/11/23 08:20,  999.0,    7.0,    6.1,    7.3,    8.2,    9.3,   10.0,    9.9,    8.8,    7.9,    7.4,    7.7,    7.7,    8.0,    8.4,    8.4,  999.0,  999.0,  999.0,   26.7,  999.0,  999.0,   29.9,   33.9,   34.3,   36.1,   35.4,   37.8,   39.0,   42.0,   39.5,   41.8,   41.5,  999.0,   42.1,  999.0,   41.5,  999.0,   41.9,   41.3,   41.7,  999.0,   41.6,   42.0,   41.7,   41.9,   41.8,   42.4,   41.9,   41.5,   41.4,   42.1,   42.2,   42.0,   42.4,   41.9,   41.6,   42.2
2000/11/23 08:30,  999.0,    6.9,    6.2,    7.9,    8.7,    9.7,   10.4,   10.6,    9.5,    8.0,    7.1,    7.3,    7.1,    6.8,    7.4,    8.5,   10.0,   11.3,  999.0,  999.0,  999.0,  999.0,  999.0,   33.4,   36.4,   36.7,   39.5,   40.8,   41.7,   42.0,   41.9,   42.1,   42.2,   41.5,   41.9,   41.6,   41.8,   42.0,   42.3,   41.6,   41.9,   41.9,   41.8,   42.3,   42.5,   41.6,   41.4,   41.5,   42.0,   41.5,   42.1,   41.8,   41.9,   41.8,   42.3,   42.3,   42.4,   41.9
2000/11/23 08:40,  999.0,    5.5,    4.0,    5.4,    7.5,    8.0,   10.0,    9.7,    8.8,    7.8,    7.4,    7.6,    7.1,    6.6,    6.3,    8.1,    9.8,   11.8,  999.0,  999.0,  999.0,  999.0,  999.0,  999.0,   38.1,   39.7,   41.5,   41.4,   41.9,   41.8,   41.6,   42.3,   41.8,   41.5,   42.0,   41.5,   41.9,   41.8,   42.2,   41.8,   41.9,  999.0,   41.9,   41.7,   41.7,   41.8,   42.0,   41.8,   41.9,   42.0,   42.1,   41.4,   41.5,   41.3,   41.6,   41.9,   41.4,   42.7
2000/11/23 08:50,  999.0,    4.1,    5.4,    6.7,    7.8,    8.5,   10.2,    9.0,    8.3,    7.4,    7.5,    7.6,    7.5,    6.9,    7.3,    8.5,  999.0,  999.0,  999.0,  999.0,  999.0,  999.0,  999.0,   34.7,  999.0,   35.3,   40.5,   39.8,   41.7,   41.7,  999.0,   41.9,   41.8,   41.6,   41.6,   41.9,   41.8,   41.3,   41.8,   41.6,   41.9,   41.5,   42.6,   41.9,   41.9,   42.1,   42.0,   41.8,   42.1,  999.0,   41.8,   41.8,   41.7,   41.9,   42.0,   42.1,   41.9,   41.5
2000/11/23 09:00,  999.0,    4.3,    6.5,    6.8,    8.6,    9.3,   11.4,   11.9,   11.1,    9.5,    9.2,    8.6,    6.6,  999.0,  999.0,  999.0,  999.0,   13.3,   16.3,  999.0,  999.0,  999.0,  999.0,  999.0,  999.0,  999.0,  999.0,   42.2,  999.0,   42.0,   42.0,   42.0,   42.3,   42.4,   42.5,   41.9,   41.9,   42.1,   42.0,  999.0,   42.1,   42.0,   42.0,   42.0,   41.8,   42.0,   41.8,   41.9,   41.9,   41.8,   42.3,   41.9,   42.3,   42.3,   42.0,   41.9,   42.0,   41.9
2000/11/23 09:10,  999.0,    6.9,    7.9,    6.1,    8.4,    9.0,   10.8,   13.1,   11.0,    8.4,    8.7,  999.0,  999.0,    6.9,    7.2,  999.0,  999.0,  999.0,  999.0,  999.0,   29.9,  999.0,   31.2,   33.7,   35.9,   38.9,  999.0,   40.4,   41.2,   41.7,   42.2,   42.2,  999.0,   41.7,   41.7,   42.0,   42.2,   41.8,   42.2,   42.2,   41.8,   41.9,   41.7,   42.2,   41.8,   42.2,   41.9,   41.7,   41.7,   41.7,   42.1,   41.7,   41.9,   41.5,   42.1,   42.3,   42.2,   42.3
2000/11/23 09:20,  999.0,    2.7,    3.8,    3.7,    5.2,    5.0,    3.8,    1.6,    3.0,    5.3,    7.4,  999.0,  999.0,  999.0,    5.9,    7.5,  999.0,   15.2,  999.0,  999.0,  999.0,  999.0,  999.0,   33.1,   35.0,   36.3,   40.8,   40.0,   40.9,   40.8,   41.2,   41.5,   41.7,   41.9,   42.2,   42.1,   42.0,   42.0,   42.5,   42.7,   41.7,   41.7,   42.2,   42.7,   42.0,   41.5,   42.2,   42.1,   42.0,   42.2,   41.7,   41.8,   41.2,   42.0,   41.6,   41.9,   42.0,   41.8
2000/11/23 09:30,  999.0,    1.7,    2.0,    3.8,    3.5,    4.2,    4.4,    3.5,    1.4,    8.0,    7.8,    4.7,    5.2,    6.9,    5.2,    7.7,   10.8,  999.0,  999.0,  999.0,  999.0,  999.0,   31.0,   33.3,   33.6,   36.5,   38.1,   39.5,  999.0,   41.6,   42.3,   41.9,   41.9,   41.5,   41.8,   41.9,   41.4,   41.8,   41.8,   41.8,   42.0,   42.2,   41.6,  999.0,   41.7,   42.4,   41.6,   41.9,   41.4,   41.9,   41.6,   41.7,   41.3,   41.8,   42.0,   42.0,   41.9,   40.9
2000/11/23 09:40,  999.0,    0.2,  999.0,    2.3,    2.2,    3.8,    3.6,    2.4,    2.5,    3.1,    3.8,    6.0,    6.5,    5.9,    6.3,    7.4,    8.9,   13.3,  999.0,  999.0,   15.4,  999.0,   24.7,   33.1,   34.8,   38.8,   37.8,   38.9,   39.1,   40.2,   40.7,   41.1,   41.8,   41.7,   42.1,   41.8,   42.0,   41.8,  999.0,   41.6,   41.6,   41.5,  999.0,   41.6,   41.6,  999.0,   41.1,   41.8,   41.9,   41.6,   41.7,   42.2,   41.7,   41.5,   42.1,   42.0,   42.1,   42.4
2000/11/23 09:50,  999.0,    2.2,    3.2,    3.2,    3.0,    2.9,    3.6,    4.1,    5.1,    6.7,    8.4,    8.7,    8.9,    8.1,    7.0,    7.4,    8.7,    9.5,   11.9,   15.4,  999.0,  999.0,  999.0,   30.5,   31.3,   32.9,   36.7,   35.9,   36.6,   39.7,   40.8,   41.8,   29.6,   40.9,   34.3,   41.3,   31.2,   41.8,   38.1,   42.3,   41.8,   26.2,   11.7,   23.6,   33.1,   41.6,   24.6,   41.8,   35.1,   34.2,   38.2,   21.1,  999.0,   22.6,   42.3,   42.1,   35.1,   41.4
2000/11/23 10:00,  999.0,    3.6,    4.6,    3.8,    2.4,    2.7,    2.1,    3.7,    5.0,    6.6,    7.2,    7.3,    7.3,    8.4,    6.8,    1.9,   -3.3,   -3.5,   -4.1,  -11.9,    1.6,  999.0,  999.0,  999.0,   42.2,   42.3,   41.9,   38.0,   38.4,   21.0,   39.5,   30.9,   40.5,   41.2,   41.7,   41.6,  999.0,   41.8,   36.6,   27.0,   32.4,   41.7,   15.3,   26.5,   25.1,   22.5,    1.4,  999.0,    1.1,   21.2,   41.8,   21.2,   41.6,    0.4,   20.8,   21.6,   41.5,   17.2
2000/11/23 10:10,  999.0,    3.0,    4.2,    5.3,    4.7,    4.8,    2.5,    5.2,    5.5,    7.5,   10.1,    7.6,    9.7,   10.7,   10.4,   11.9,   13.1,   12.1,   13.2,  999.0,  999.0,   26.9,   28.1,   31.8,  999.0,   31.2,   32.3,   33.3,   34.3,   37.8,   36.4,  999.0,   39.3,  999.0,  999.0,   41.9,   42.0,  999.0,  999.0,  999.0,  999.0,   41.7,  999.0,  999.0,   -0.4,   -0.8,  999.0,   -0.7,   -0.6,  999.0,   -0.4,   -0.5,  999.0,  999.0,  999.0,  999.0,   -1.2,  999.0
2000/11/23 10:20,  999.0,    1.8,    2.5,    4.9,    5.2,    5.7,    5.4,    7.9,    6.9,    8.9,    8.8,    8.5,    8.3,    7.9,    7.0,    6.1,    7.8,   -1.9,  -14.7,   -5.6,   -5.4,  999.0,   29.3,   19.0,   12.9,   16.9,   19.2,   12.8,   13.0,   13.0,    0.8,    0.6,  999.0,   10.4,   16.0,   21.1,    8.0,   13.8,  999.0,  999.0,  999.0,  999.0,   42.1,  999.0,   -0.9,   -0.6,  -10.9,  -14.0,  -10.2,   -5.6,   12.6,   -0.2,  -18.6,  999.0,   -0.9,   -0.9,   -0.9,   -0.2
2000/11/23 10:30,  999.0,    5.4,    5.8,    5.1,    5.8,    6.6,    6.8,    7.7,    8.9,    9.9,    9.8,    9.1,   10.8,    9.3,    9.6,   10.0,   11.5,    6.1,   17.5,   15.1,  999.0,   28.9,   31.2,   31.7,  999.0,   35.4,   36.7,   38.5,   39.8,   40.8,   24.1,   41.7,   37.5,   41.3,   42.0,   25.5,   41.3,   24.9,   29.5,   34.2,  999.0,  999.0,  999.0,  999.0,  999.0,   17.3,    7.4,   -0.9,   -0.8,   34.5,   -0.7,    7.9,   -0.5,  999.0,  999.0,  999.0,   -0.8,   -0.3
2000/11/23 10:40,  999.0,    2.7,    5.1,    5.2,    4.8,    5.5,    6.5,    7.5,    9.5,    9.8,   10.0,   10.3,   11.0,    8.2,    7.5,    6.2,   -2.0,  -10.1,  -13.4,   -0.9,  -11.3,  -13.5,    9.9,  999.0,   31.1,   38.3,   41.5,   41.9,   42.3,   21.2,   41.7,   41.9,   41.9,   42.1,   41.0,   41.8,   32.6,   21.5,   20.9,   21.0,    0.3,   21.6,   41.7,  999.0,  999.0,  999.0,   41.9,   12.7,   36.3,    0.3,   13.9,    1.9,  999.0,  999.0,  999.0,  999.0,  999.0,  999.0
2000/11/23 10:50,  999.0,    3.4,    4.8,    4.3,    5.6,    6.5,    6.9,    7.0,    8.3,    9.7,    8.5,    7.7,    5.8,    5.9,    6.2,    4.8,    7.8,    8.3,   10.9,   15.8,   30.6,   19.8,   21.2,   29.3,  999.0,  999.0,  999.0,  999.0,   41.6,   42.0,   42.3,   41.7,   42.2,   42.0,   41.6,   41.5,   37.6,   37.5,   35.9,   42.0,   32.4,   30.9,   41.6,   28.0,   41.8,   24.7,  999.0,    9.9,   11.2,   -0.0,  -10.0,    0.7,   21.1,    1.0,  -41.2,  -20.4,    0.5,    1.0
2000/11/23 11:00,  999.0,    1.4,    1.5,    2.9,    5.2,    3.7,    5.3,    6.2,    6.9,    8.2,    6.6,    7.5,    3.7,  999.0,    4.3,    7.0,    6.3,   13.9,   17.3,  999.0,  999.0,  999.0,  999.0,  999.0,  999.0,  999.0,  999.0,  999.0,   42.0,   42.2,   41.4,   42.3,   41.5,  999.0,   41.1,   40.7,   39.8,   36.7,   33.1,  999.0,   31.9,   29.1,   41.1,   18.5,   24.0,   19.0,   16.8,   41.6,   14.0,    4.3,   15.8,   13.0,    0.8,    0.3,    1.4,    6.2,   21.4,   13.8
2000/11/23 11:10,  999.0,    1.9,    1.6,    0.9,    2.1,    3.1,    3.5,    4.5,    5.4,    6.7,    5.5,    6.1,    4.9,    3.3,  999.0,    8.0,    8.4,   10.4,   12.5,   13.6,   15.9,  999.0,  999.0,  999.0,   34.9,   40.9,   40.4,   40.7,   40.7,   41.5,   41.6,   41.7,   41.7,   42.4,   41.6,   41.9,   32.6,   42.0,  999.0,  999.0,   38.8,   37.5,   35.8,   26.9,   32.8,   35.6,   33.4,   32.6,   25.9,   24.1,    3.8,   21.9,   28.2,   41.9,   21.4,   21.7,    0.9,    0.9
2000/11/23 11:20,  999.0,    2.5,    2.5,    3.6,    4.2,    4.8,    5.8,    7.2,    7.9,    7.8,    7.1,    6.3,    8.4,    6.3,    7.9,    9.1,   10.6,  999.0,   14.8,   17.0,   17.3,   23.4,  999.0,  999.0,   34.3,   39.2,  999.0,   40.0,   41.8,   41.7,   42.5,   42.3,   42.1,   41.8,   41.5,   42.0,   42.1,   42.0,   42.4,   41.9,   41.4,   42.0,   42.6,   41.7,   42.1,   42.1,   42.1,   41.9,   41.9,   41.9,   41.8,   41.8,   41.8,   41.9,   42.0,   42.0,   42.0,   41.9
2000/11/23 11:30,  999.0,    4.0,    7.0,    6.3,    7.7,    7.9,    6.6,    6.2,    5.9,    5.4,    5.0,    5.6,    4.3,    4.0,    5.4,    8.0,    8.9,  999.0,   13.7,   15.6,   18.2,  999.0,  999.0,  999.0,  999.0,   41.9,   39.7,   41.6,   41.9,   41.7,   41.7,   41.9,   42.1,   41.8,   41.6,   41.5,   41.8,   41.8,   42.1,   42.0,  999.0,   41.4,   41.9,   41.9,   42.4,   42.1,   42.2,   41.8,   41.7,   42.4,   42.4,   41.8,   41.6,   41.6,   41.9,   41.9,   42.0,   41.7
2000/11/23 11:40,  999.0,    3.1,    1.9,    3.8,    2.9,    3.4,    4.3,    4.9,    6.5,    7.1,    4.6,    4.4,    3.3,    3.4,    3.7,    6.4,    6.5,    9.5,   13.6,  999.0,   17.3,  999.0,  999.0,  999.0,   40.2,   41.7,   42.0,   42.2,   42.5,   42.1,   42.0,   42.1,   42.1,   42.0,   42.6,   33.5,   31.2,   42.3,   21.4,   31.9,   31.5,   41.9,   36.6,   39.2,   42.2,   40.1,   37.5,   28.6,   24.0,   42.1,   42.2,   30.5,   31.2,   41.8,   31.5,   35.1,   31.7,   34.7
2000/11/23 11:50,  999.0,    2.1,    1.9,    3.0,    3.9,    3.0,    3.6,    4.4,    4.6,    3.8,    1.5,   -0.5,    1.9,    2.0,    0.5,    1.8,   11.6,   12.6,    4.4,    8.9,   19.5,   27.0,   26.3,   26.8,  999.0,  999.0,  999.0,  999.0,  999.0,   37.3,   41.8,   42.0,   21.4,   39.5,   36.9,   39.7,   41.7,   41.6,   41.7,   41.9,   42.1,   41.9,   41.7,   41.9,   41.8,   41.8,   41.9,   41.9,   41.7,   42.1,   41.9,   40.8,   34.2,  999.0,   22.2,   41.7,   41.9,   41.5
2000/11/23 12:00,  999.0,    2.4,    4.0,    5.7,    5.8,    4.7,    4.6,    4.9,    5.5,    4.8,    4.8,    3.9,    5.4,    6.6,    8.0,    9.3,   13.6,   16.3,   15.7,   18.3,  999.0,   24.2,   26.6,   28.8,  999.0,  999.0,   41.7,   42.2,   41.7,   41.4,   41.9,  999.0,   41.7,   42.2,   41.9,   41.8,   41.9,   41.8,   41.9,   41.8,   42.0,   41.8,   41.9,   41.6,   41.8,   41.9,   41.5,   41.5,   41.3,   41.8,   41.4,   41.8,   41.8,   41.9,   41.5,   41.8,   42.0,   41.8
2000/11/23 12:10,  999.0,    5.0,    1.1,    5.6,    5.6,    5.0,    5.5,    5.5,    5.6,    4.8,    4.4,    4.2,    4.2,    7.1,    8.0,   11.6,   13.7,   16.6,   20.1,  999.0,  999.0,  999.0,  999.0,  999.0,  999.0,  999.0,   28.8,   29.0,   27.6,  999.0,  999.0,  999.0,   42.1,   42.1,   41.9,   42.0,   41.8,   41.9,  999.0,   41.6,   41.5,   42.1,   41.9,   41.5,   41.8,   41.8,   41.9,   41.6,   41.9,   41.9,   41.8,   41.6,   41.7,   41.6,   41.9,   41.7,   41.5,   41.5
2000/11/23 12:20,  999.0,    8.0,    7.6,    7.6,    7.6,    5.4,    3.7,    4.8,    6.4,    6.4,    5.4,    3.8,    5.0,    5.5,    5.3,   13.2,  999.0,  999.0,  999.0,   21.7,   19.4,   23.1,   23.3,    8.4,   28.7,  999.0,   32.9,   17.6,  -11.2,   21.2,   40.4,   34.4,   33.2,   31.1,   41.9,   35.7,   37.1,   35.9,   34.1,   37.9,   39.0,   40.2,   41.3,   42.2,   42.1,   42.0,   41.9,   42.0,   41.8,   41.7,   41.3,   41.8,   42.0,   42.5,   42.1,   41.8,   41.6,   41.6
2000/11/23 12:30,  999.0,    9.8,    9.2,    8.5,    8.2,    8.3,    8.1,    7.8,    7.8,    7.2,    6.8,    5.9,    7.1,    7.1,    8.8,   10.2,   11.5,   16.3,   16.6,   19.2,   16.2,   27.5,  999.0,  999.0,  999.0,  999.0,  999.0,   24.1,   24.6,   24.3,   25.1,   25.7,  999.0,  999.0,   41.6,   41.5,   42.1,   41.7,   41.6,   41.4,   41.6,   41.6,   41.5,   41.9,   42.0,   42.2,   42.0,   41.8,   41.7,   41.7,   41.7,   42.1,   41.9,   41.9,   41.8,   41.7,   41.9,   41.9
2000/11/23 12:40,  999.0,    9.6,    6.2,   10.2,    9.8,    9.7,    9.4,    8.7,    8.4,    7.7,    6.9,    5.7,    5.4,    4.8,    4.9,    6.5,   10.1,    8.5,   11.1,   15.2,   15.1,   15.6,   20.2,   26.0,   20.9,   19.2,   18.3,   25.1,   24.2,  999.0,  999.0,   26.1,  999.0,  999.0,  999.0,   32.4,  999.0,   33.2,   39.3,   34.9,   39.6,   39.1,   38.8,   39.3,   39.2,   40.1,   40.6,   40.6,   40.3,   40.5,   40.1,   41.6,   41.3,   41.4,   41.7,   42.1,   41.9,   41.8
2000/11/23 12:50,  999.0,    9.2,    9.9,   10.5,   10.9,   10.8,   10.0,    9.6,  999.0,    8.3,    8.5,    6.8,    6.9,    6.2,    5.1,    6.2,    8.1,   10.7,   11.7,   12.7,   14.2,   23.1,   25.5,   20.6,   22.0,   27.5,   34.8,   33.3,   34.5,   34.1,   22.8,   41.4,   41.3,   41.9,    0.9,   41.9,   21.4,   41.5,   21.3,   41.8,   21.6,   21.5,  999.0,   42.2,    0.8,   28.4,   28.0,   28.0,   28.2,   41.5,   28.1,   42.1,   21.2,   41.9,   42.0,   41.5,   41.6,   28.3
2000/11/23 13:00,  999.0,    5.5,    6.8,    7.3,    9.1,    8.7,    9.3,    9.9,   10.1,    9.9,    7.2,    6.0,    5.8,    5.8,    4.3,    6.2,    8.5,   10.8,   14.1,   17.2,   20.4,   23.2,   25.3,   26.2,   27.4,   26.7,  999.0,  999.0,  999.0,   25.4,   26.0,   33.3,   41.6,   41.5,   41.9,   41.5,   41.6,   41.8,   41.8,   41.6,   41.8,   42.2,   41.9,   41.9,   41.9,   41.9,   41.6,   41.4,   41.9,   41.1,   29.5,   41.3,   41.6,   40.5,   28.4,   31.6,   34.8,   38.1
2000/11/23 13:10,  999.0,    6.7,    7.1,    7.5,    7.8,    8.1,    8.3,    8.6,    9.2,    9.1,    9.4,    8.4,    6.2,    6.8,    6.4,    8.7,   10.6,   12.8,   15.0,   16.1,   19.1,   21.5,   23.5,   24.8,   25.4,   24.5,   25.5,  999.0,  999.0,  999.0,  999.0,  999.0,   41.9,   41.9,   42.0,   41.7,   41.8,   41.8,   41.9,   42.0,   41.9,   41.8,   41.9,   41.9,   42.0,   42.0,   42.0,   41.9,   41.9,   41.7,   42.0,   41.7,   41.7,   41.9,   41.4,   41.8,   41.8,   42.7
2000/11/23 13:20,  999.0,   -0.1,    0.1,    1.3,    6.6,    5.6,    6.6,    8.3,    8.5,    8.5,    8.8,    8.0,    8.4,   10.0,    9.2,   12.0,   14.1,   14.4,   14.8,   16.3,   17.8,   20.1,   23.8,   24.7,   25.0,   26.4,  999.0,  999.0,  999.0,  999.0,  999.0,  999.0,  999.0,   41.7,  999.0,   41.7,   41.4,   41.9,   41.7,   41.8,   42.0,   41.6,   41.6,   41.5,   41.8,   41.8,   41.9,   41.4,   41.6,   42.3,   42.1,   42.1,   41.8,   42.1,   41.9,   41.8,   41.9,   41.3
2000/11/23 13:30,  999.0,  999.0,  999.0,   11.2,   11.4,  999.0,  999.0,    9.3,    9.3,    8.5,    7.7,    6.6,    6.8,    7.4,    8.4,    5.9,  999.0,   12.1,  999.0,  999.0,  -15.6,   -9.8,   28.0,   19.6,   15.3,   24.6,  999.0,   28.6,    4.0,  -18.0,  999.0,  999.0,  999.0,  999.0,   42.2,   41.6,   41.8,   42.3,   42.1,   41.9,   41.7,   41.8,   41.7,   41.8,   41.5,   42.0,   42.0,   41.5,   41.8,   35.8,   36.3,   33.1,   41.7,   41.8,   41.7,   42.9,   28.3,    1.4
2000/11/23 13:40,  999.0,  999.0,   11.3,   11.1,   10.5,   10.1,   10.5,   10.5,   10.8,    8.9,    9.0,    9.4,    8.7,    8.8,   10.0,   12.0,   14.3,   14.5,  999.0,  999.0,   22.0,   24.1,   26.8,   26.3,   26.3,   25.2,   24.9,  999.0,  999.0,  999.0,  999.0,  999.0,  999.0,  999.0,  999.0,   41.4,   41.7,   41.9,   41.9,   42.1,   41.8,   41.4,   41.8,   41.8,   41.9,   41.8,   41.7,   41.8,   41.7,   41.8,   41.7,   41.5,   42.4,   41.8,   41.3,   41.7,   41.8,   41.4
2000/11/23 13:50,  999.0,   14.0,   12.4,   12.8,   12.8,   12.2,   12.0,   12.1,   12.8,   12.7,   11.1,    9.8,    9.1,    8.1,    8.5,    9.2,   11.8,   14.1,  999.0,  999.0,  999.0,   26.4,   36.0,   35.8,   39.1,  999.0,   41.3,   42.1,  999.0,   42.2,   41.8,   41.6,   42.2,   42.0,   42.0,   42.0,   41.5,   42.4,   42.3,   42.3,   41.7,   41.7,   42.0,   41.8,  999.0,   41.7,   42.0,   42.0,   41.8,   41.7,   41.7,   42.5,   42.1,   42.0,   42.2,   42.0,   42.0,   41.7
2000/11/23 14:00,  999.0,   11.0,   13.3,   13.1,   13.2,   12.5,   12.8,   12.3,   12.3,   12.9,   12.5,   10.2,    9.8,    7.8,    9.8,   10.1,   12.4,   14.1,   18.6,   18.9,   22.2,   24.1,   27.4,   26.1,   42.3,  999.0,   42.1,   42.2,   41.6,   41.9,   41.7,   41.7,   41.8,   41.6,   42.0,   42.0,   41.9,   42.1,   41.6,   41.0,   41.6,   41.6,   41.3,   41.9,   41.9,   42.0,   41.8,   41.8,   41.7,   42.2,   42.2,   42.1,   41.9,   41.8,   41.9,   42.0,   41.7,   41.0
2000/11/23 14:10,  999.0,   11.3,   13.2,   13.7,   13.4,   13.0,   12.4,   13.6,   14.0,   13.9,   13.0,   11.7,   10.9,    8.4,    8.4,    8.9,   10.1,   11.4,   13.1,  999.0,  999.0,   13.7,   17.0,   19.5,   19.8,   41.9,   30.1,   41.7,   42.0,   41.6,   41.8,   41.8,   42.1,   41.9,   41.9,   41.7,   41.5,   41.3,   41.7,   41.8,   41.9,   42.1,   42.1,   41.7,   41.8,   41.8,   41.5,   41.4,   41.6,   41.7,   41.7,   42.1,   42.0,   41.9,   41.9,   41.5,   42.3,   41.6
2000/11/23 14:20,  999.0,  999.0,   14.3,   14.8,   14.7,   14.4,   14.2,   14.5,   13.5,   13.5,   13.1,   12.9,   11.8,   10.3,    8.6,    9.3,   11.4,   13.0,   13.0,  999.0,   17.3,  999.0,   33.8,   36.9,   37.2,   41.8,   41.2,  999.0,   41.8,   41.8,   41.5,   41.1,   41.8,   42.1,   42.1,   41.7,   41.8,   42.1,   41.9,   42.0,   42.2,   42.1,   42.0,   42.0,   42.0,   42.0,   42.1,   42.0,   41.8,   42.0,   42.2,   39.6,   41.7,   35.5,   41.1,   21.2,   35.2,   41.6
2000/11/23 14:30,  999.0,   10.9,   13.5,   14.4,   14.7,   15.8,   14.9,   14.1,   12.9,   13.4,  999.0,   11.8,   13.1,  999.0,  999.0,   18.2,  999.0,   12.3,    0.8,    7.7,    0.7,  999.0,   35.0,   41.8,    0.4,  999.0,   20.8,   21.2,   42.0,   41.8,   28.3,   41.7,   21.5,   28.0,   41.8,   21.3,   28.1,   34.9,   30.6,   21.2,   21.0,  999.0,   20.9,    0.5,   21.2,   21.4,   42.2,   21.2,   21.4,   21.1,  999.0,   21.3,    0.7,   21.6,    0.9,    0.4,   21.0,  999.0
2000/11/23 14:40,  999.0,  999.0,  999.0,  999.0,  999.0,  999.0,  999.0,  999.0,  999.0,  999.0,  999.0,   11.7,  999.0,  999.0,  999.0,  999.0,   11.4,   13.0,  999.0,  999.0,  999.0,  999.0,   28.3,   29.2,   30.6,   32.3,   33.3,   34.2,   35.3,   36.8,   37.1,   37.7,   38.9,   39.9,   40.5,   41.1,   42.1,   42.3,   41.9,   42.0,   41.9,   42.3,   42.2,   41.9,   42.2,   42.1,   41.8,   41.5,   41.9,   42.0,   41.8,   41.8,   41.9,   41.9,   42.0,   41.7,   42.0,   42.1
2000/11/23 14:50,  999.0,  999.0,  999.0,  999.0,  999.0,  999.0,  999.0,  999.0,  999.0,  999.0,   11.6,   11.6,   11.3,  999.0,  999.0,  999.0,  999.0,   25.0,   24.2,   21.8,   28.9,   24.7,   31.3,   33.1,   35.9,   36.6,   34.6,   36.7,   39.6,   40.6,   41.7,   41.7,   41.9,   41.8,   41.9,   41.7,   42.2,   42.0,   42.0,   41.4,   41.6,   42.1,  999.0,  999.0,   42.1,   41.9,   41.8,   42.1,   41.8,   41.5,   41.6,   41.9,   41.7,   41.6,   41.9,   41.9,   41.9,   42.1
2000/11/23 15:00,  999.0,  999.0,  999.0,  999.0,   14.4,  999.0,  999.0,   13.0,   11.9,   12.1,   15.8,   10.8,   10.5,  999.0,   22.6,   24.2,   22.8,   28.7,   18.4,   23.9,   17.3,   20.3,   39.6,   21.3,   42.2,   42.2,   31.7,   36.9,   41.4,   41.6,   41.8,   33.4,   23.3,   32.6,   26.6,   21.4,   28.0,   21.3,   27.3,   25.9,   32.4,   42.0,   32.2,   34.3,   41.8,   25.0,   32.6,   30.0,   34.5,   38.7,   31.1,   39.8,   28.7,   22.4,   34.5,   28.1,   31.7,   42.1
2000/11/23 15:10,  999.0,  999.0,   11.5,   10.8,   12.7,   13.9,   14.5,   13.4,   12.4,  999.0,  999.0,   21.6,   21.0,   22.5,  999.0,   22.0,   27.8,  999.0,   30.6,   34.8,   35.4,   40.8,   40.8,   41.9,   41.5,   42.0,   41.6,   41.7,   41.6,   41.9,   41.8,   42.1,   41.8,   41.6,   41.8,   42.1,   41.9,   41.8,   42.4,   42.0,   41.8,   41.7,   41.6,   41.5,   41.6,   41.5,   41.5,   41.4,   41.7,   41.8,   41.7,   42.0,   41.8,   41.7,   41.5,   41.6,   41.8,   41.9
2000/11/23 15:20,  999.0,    7.5,   15.7,   16.2,   15.3,   14.8,   13.2,   13.5,  999.0,   13.0,   14.7,  999.0,    9.9,   12.3,  999.0,   23.8,   25.9,  999.0,   32.4,   33.6,   35.7,   37.9,   40.3,   41.8,   41.9,   40.3,   42.0,   41.8,   42.2,   42.0,   41.4,   41.7,   42.0,   41.5,   41.9,   41.4,   42.2,   41.8,   41.9,   42.2,   41.3,   41.9,   41.2,  999.0,   41.8,   41.9,   41.7,   39.7,   36.7,   38.8,   23.6,   41.9,   30.2,   29.4,   41.1,   28.3,   34.7,   35.0
2000/11/23 15:30,  999.0,    8.7,    9.0,   10.3,   12.8,   16.9,   18.2,   14.2,   14.1,   14.4,  999.0,   11.7,   11.7,   11.6,    9.4,    8.1,  999.0,  999.0,   28.2,   34.5,   35.1,   37.1,   36.1,   39.6,   41.1,   41.7,   41.9,   41.7,   41.7,   41.4,   42.3,   41.6,   42.3,   41.1,   41.6,   41.6,   41.2,   41.6,   41.9,   41.7,   41.9,   41.7,   41.9,   41.7,   41.7,   42.1,   41.9,   41.9,   41.9,   42.0,   41.8,   41.3,   41.6,   41.7,   41.7,   41.9,   41.7,   41.7
2000/11/23 15:40,  999.0,   10.8,   10.0,   11.9,   12.9,   14.6,   15.8,   16.2,   15.1,   13.0,   12.4,   10.9,   11.5,   10.8,    9.0,    8.7,    9.5,  999.0,  999.0,  999.0,  999.0,   37.1,   37.2,   40.6,   41.7,   42.1,   42.0,   42.3,   41.7,   41.9,   42.3,   42.3,   41.9,   41.6,   42.1,   41.6,   41.7,   41.8,   41.5,   42.1,   41.9,   41.7,   41.8,   41.7,   41.7,   41.9,   42.0,   42.2,   42.5,   42.0,   42.0,   41.7,   42.2,   41.8,   42.0,   41.7,   42.1,   42.3
2000/11/23 15:50,  999.0,  999.0,  999.0,   15.4,   14.2,   14.7,   14.6,   14.3,   14.5,   13.3,   14.4,  999.0,    9.8,    7.0,    5.0,  999.0,   -1.3,   -2.3,   11.1,    1.3,    1.1,    3.1,    3.5,    0.7,    1.1,    0.9,    0.8,   11.2,    1.1,   20.7,   27.3,   34.1,   40.7,   34.4,   40.4,   41.7,   35.1,   31.9,   30.9,   35.9,   42.1,   42.0,   41.8,   41.9,   41.8,   42.1,   41.9,   42.3,   39.2,   41.5,   31.9,   37.5,   38.9,   41.8,   42.3,   41.7,   42.1,   41.8
2000/11/23 16:00,  999.0,  999.0,   11.8,   15.2,   15.7,   16.6,   15.6,   14.8,   14.4,   14.5,   14.0,   13.3,   12.2,   11.1,    9.3,    2.4,  999.0,  999.0,  999.0,   32.0,   17.4,    0.6,   37.3,  999.0,   40.7,   21.7,  999.0,    0.6,   20.9,   21.3,   21.0,   41.7,   21.0,   21.2,   20.9,   20.9,   21.0,   21.1,   21.1,   41.3,    1.8,   21.6,    1.2,   21.6,   21.5,   21.3,    0.9,   21.1,    1.0,   21.6,    0.9,   21.2,   21.4,   21.3,   -0.2,   42.0,   21.4,   20.8
2000/11/23 16:10,  999.0,   11.0,   11.3,   13.4,   13.4,   13.2,   12.5,   12.4,   13.1,   12.6,   11.7,   11.3,   12.4,   12.2,   12.0,  999.0,  999.0,  999.0,   16.6,   25.7,   14.2,   19.4,   17.6,   10.4,   14.6,   12.8,    6.4,   12.0,   10.0,    8.5,    6.5,    4.0,    0.9,    3.1,    2.2,    0.9,    0.8,    0.8,  999.0,    0.8,    0.7,    1.0,    1.0,    0.9,    0.7,    0.5,    0.8,    0.6,    0.7,    0.4,    0.9,    0.8,    1.3,    0.8,    0.9,    0.8,    0.9,    0.9
2000/11/23 16:20,  999.0,   11.5,   12.1,   12.0,   11.4,   13.0,   13.4,  999.0,  999.0,  999.0,  999.0,   10.8,   11.8,   14.3,   20.6,    9.8,  999.0,   20.4,   18.2,   16.2,   14.6,   12.6,   11.2,    9.6,    7.6,    5.4,    4.3,    3.9,    0.9,    1.0,    0.7,    0.7,    0.6,    3.3,    0.3,   10.8,    5.8,    3.9,    0.5,    0.5,    0.8,    1.0,    0.9,    0.4,    0.9,    1.0,    0.9,    1.0,    1.3,    0.7,    1.0,    0.7,    0.2,    0.8,    0.7,    0.8,    0.4,    0.6
2000/11/23 16:30,  999.0,   11.2,   10.9,   11.8,   11.7,   14.1,  999.0,  999.0,  999.0,   21.7,   21.5,   21.1,   21.2,   20.8,   21.3,   20.2,   19.0,   18.9,   16.6,   15.8,   10.5,   11.0,    9.7,    5.4,    5.1,    2.7,    1.8,    0.7,    0.7,  999.0,    0.6,    0.7,  999.0,    0.4,    0.8,    0.8,    1.0,    0.7,    0.5,    0.9,    0.7,    1.0,    0.5,    0.8,    0.7,    0.3,    0.5,    0.7,    1.1,    0.8,    0.6,    0.7,    1.0,  999.0,    0.6,    0.8,    0.9,    0.5
2000/11/23 16:40,  999.0,    9.8,   12.7,  999.0,   11.5,   11.1,   13.1,  999.0,   21.8,   21.4,   21.1,   21.2,   20.8,   21.1,   21.7,   21.1,   20.9,   19.9,   18.7,   15.9,   13.1,   12.2,   10.7,    8.4,    6.4,    4.5,    4.7,    2.0,    1.1,    0.2,    0.7,    0.8,    0.7,    1.0,    1.0,    0.5,    0.8,    0.8,    1.0,    0.8,    0.6,    0.8,    0.6,    0.4,    0.3,    0.7,    0.8,    0.7,    1.1,    1.1,    0.8,    0.7,    0.6,    0.6,    0.8,    0.9,    1.0,    0.9
2000/11/23 16:50,  999.0,   11.4,   12.3,   13.3,   12.2,   12.6,  999.0,  999.0,  999.0,  999.0,   21.2,   21.2,   21.8,   21.2,   21.3,   20.8,   21.1,   21.3,   20.0,   17.7,   16.5,   12.7,   11.7,   10.0,    7.7,    5.5,    3.7,    2.5,    0.8,    1.1,    1.4,    1.1,    0.3,    1.1,    0.9,    0.5,    0.6,    0.5,    0.3,    0.3,    0.5,    0.7,    0.9,    0.4,    0.7,    0.8,    0.9,    1.1,  999.0,    0.9,    0.8,    0.5,    1.0,    0.6,    0.9,    0.5,    0.5,    0.9
2000/11/23 17:00,  999.0,   10.3,   11.7,   11.8,   11.7,   11.9,   12.9,  999.0,   20.6,  999.0,   21.1,  999.0,   21.8,   21.7,   21.4,   21.1,   19.7,   19.2,   15.9,   15.1,   13.9,   11.2,    8.9,  999.0,    4.5,    4.3,    1.1,    1.4,    1.0,    0.7,    0.7,    1.0,    0.6,    0.6,    0.5,    0.8,    0.6,    0.5,    0.4,    0.6,    0.6,    0.6,    0.0,    0.4,    0.4,    1.2,    0.7,    0.7,    0.6,    0.8,    0.4,    1.0,    0.7,    0.6,    0.7,    0.3,    0.7,    1.0
2000/11/23 17:10,  999.0,  999.0,   10.8,   12.9,  999.0,  999.0,  999.0,  999.0,  999.0,  999.0,  999.0,  999.0,  999.0,   20.4,   21.2,   19.0,   19.0,   19.5,   12.8,  999.0,   12.7,   10.9,    8.2,    5.0,    3.8,    1.8,    0.6,    0.6,    0.5,  999.0,    0.6,    0.6,    0.8,    1.1,    0.7,    0.6,    0.4,  999.0,    0.4,    0.3,    0.6,    0.8,    0.8,    0.5,    0.2,    0.5,    0.8,    0.8,    0.6,    0.7,    1.0,    3.1,    5.0,  999.0,   -0.2,    6.8,   12.7,   41.2
2000/11/23 17:20,  999.0,  999.0,   10.0,   11.1,  999.0,    7.9,  999.0,  999.0,   13.9,   13.9,  999.0,   21.6,   21.4,   21.0,   21.0,   20.5,   19.5,   18.1,   15.6,   15.7,   13.7,   14.3,   14.6,    9.1,   10.0,    8.2,    9.4,  999.0,    3.5,    2.1,    0.7,    1.5,    0.8,    0.4,    0.7,    0.8,    0.5,    0.7,    0.5,    1.0,    1.1,    2.5,    4.1,    9.4,    5.6,    7.2,    0.4,   10.0,   11.3,    9.3,   26.7,   14.8,   31.3,   21.7,   11.6,   18.0,   21.1,   41.1
2000/11/23 17:30,  999.0,    7.4,    7.7,    9.7,   10.3,  999.0,  999.0,  999.0,   13.6,   13.5,   14.8,   21.5,   21.0,   20.5,   21.4,   20.9,   19.3,   18.4,  999.0,   14.6,   11.4,   11.3,    9.1,    6.4,    4.7,    2.5,    2.2,    0.1,    0.9,    1.3,    1.3,    1.0,    0.7,    0.8,    0.5,    1.0,    1.1,    1.0,    0.7,    1.2,    0.7,  999.0,  999.0,    2.3,  999.0,    8.6,  999.0,  999.0,  999.0,  999.0,  999.0,  999.0,  999.0,  999.0,  -21.0,  -15.9,  -11.3,   -6.2
2000/11/23 17:40,  999.0,  999.0,  999.0,    8.6,  999.0,    6.0,    0.9,  999.0,   11.5,   13.0,   14.5,   20.9,   21.2,   20.8,   21.0,   20.7,   19.6,   18.2,   20.2,   15.0,   13.0,   11.3,    9.1,    7.2,    5.1,    3.6,    3.0,    1.8,    1.3,    0.8,    0.4,    0.5,    0.6,    0.3,    0.5,    0.4,    0.8,    0.6,    1.1,    0.7,    2.7,    4.5,    0.7,    0.9,    0.3,  999.0,  999.0,    0.9,  999.0,    6.4,   18.6,   22.0,  999.0,   29.2,   32.6,   32.3,  999.0,   41.7
2000/11/23 17:50,  999.0,  999.0,  999.0,    4.7,  999.0,    0.7,    0.3,  999.0,   11.2,   11.8,   12.7,   21.1,   19.7,   20.4,   21.0,   18.6,   17.2,   16.3,   15.0,   14.7,   12.4,   14.5,   13.3,    9.9,    6.7,  999.0,    3.3,    7.1,    3.4,    1.7,    1.3,  999.0,    0.1,   -0.1,  999.0,  999.0,    0.2,  999.0,    1.0,  999.0,    0.6,  999.0,  999.0,    4.6,    6.5,  999.0,  999.0,  999.0,   16.5,  999.0,  999.0,   24.5,   25.8,   -6.5,  -41.2,   -4.5,   36.9,   -3.2
2000/11/23 18:00,  999.0,    4.6,    5.0,  999.0,    8.8,  999.0,  999.0,    9.9,   11.5,   11.8,   12.6,   21.7,   20.8,   21.0,   21.1,   21.2,   21.2,   20.9,   18.9,   18.4,   17.1,  999.0,   14.0,   11.9,   11.3,  999.0,  999.0,  999.0,  999.0,  999.0,  -12.3,  999.0,  999.0,  999.0,  999.0,  999.0,  999.0,  999.0,  999.0,  999.0,  999.0,  999.0,  999.0,  999.0,  999.0,  999.0,  999.0,  999.0,  999.0,  999.0,  999.0,  999.0,  999.0,  -10.4,  999.0,   -3.0,   -0.9,  999.0
2000/11/23 18:10,  999.0,  999.0,  999.0,  999.0,   11.7,  999.0,  999.0,  999.0,  999.0,  999.0,  999.0,  999.0,   20.3,   20.1,   21.5,   20.7,  999.0,   16.5,  999.0,   14.7,   12.0,   11.2,   10.9,  999.0,    7.4,    6.7,  999.0,  999.0,   -5.2,  999.0,  999.0,  999.0,  999.0,  999.0,  999.0,  999.0,  999.0,    0.5,  999.0,  999.0,  999.0,  999.0,  999.0,  999.0,  999.0,  999.0,  999.0,  999.0,    1.3,  999.0,  -17.9,   -7.9,  -13.6,    1.4,   -9.4,  -14.2,    2.2,   19.1
2000/11/23 18:20,  999.0,  999.0,    6.5,    7.0,    6.9,    8.0,    8.8,    9.9,   10.0,  999.0,  999.0,   20.5,  999.0,   21.4,   13.5,   21.8,   21.3,   22.0,   16.5,   15.1,  999.0,  999.0,   11.2,  999.0,  999.0,  999.0,    6.3,    5.4,  999.0,    2.3,  999.0,  999.0,  999.0,  999.0,  999.0,    1.3,  999.0,  999.0,  999.0,    1.0,  999.0,  999.0,  999.0,  999.0,  999.0,  999.0,  -30.0,  999.0,  999.0,  999.0,  -21.8,  -20.3,  -17.9,  999.0,  -14.5,  999.0,   31.2,   33.4
2000/11/23 18:30,  999.0,    8.5,    8.3,    7.6,    7.0,    8.0,    9.7,    9.7,   10.7,   12.1,  999.0,  999.0,   11.1,  999.0,  999.0,  999.0,  999.0,  999.0,  999.0,  999.0,  999.0,  -14.0,  -13.8,  -17.2,   -5.7,   -5.3,   -4.7,   -4.2,   -2.5,   -2.5,   -2.0,   -3.3,   -2.6,   -1.7,    0.2,    2.0,    3.3,    2.9,    3.9,    5.9,    6.4,    8.2,    7.4,  999.0,  999.0,  999.0,  999.0,  999.0,  999.0,  999.0,  999.0,  999.0,  999.0,  999.0,  999.0,  999.0,  999.0,  999.0
2000/11/23 18:40,  999.0,  999.0,    9.2,    7.2,    8.6,    9.8,    9.7,   13.5,  999.0,   -8.0,   -8.8,   -8.3,    1.8,   -5.0,   -4.0,   -1.9,   -0.3,    2.7,    5.0,    8.0,    8.9,    6.4,    0.1,    0.6,    2.3,    2.4,    1.4,    1.6,    1.9,   -2.5,   -1.4,   -1.6,   -2.5,   -0.6,   -0.9,   -0.1,    0.5,    1.9,    3.8,    3.2,    2.1,    2.4,    7.6,  999.0,  999.0,  999.0,    4.2,    4.6,    5.4,    6.9,    6.5,    5.7,    4.9,  999.0,  999.0,  999.0,  999.0,  999.0
2000/11/23 18:50,  999.0,  999.0,  999.0,  999.0,    5.0,    8.7,    0.2,    6.4,    7.4,  999.0,  999.0,   11.0,   -2.9,    0.1,    2.5,   -0.5,    2.9,    5.0,    6.7,    8.6,    8.2,    5.8,    5.0,    4.2,    3.1,    2.3,    2.5,    1.6,    0.9,    0.4,    0.0,   -0.9,   -0.9,   -1.2,   -2.0,   -2.3,   -1.9,   -1.5,   -1.0,   -0.5,   -0.2,    0.2,    5.0,  999.0,    7.4,    6.3,    6.2,    6.9,    6.9,    6.6,    6.3,    6.0,    5.8,    5.2,    4.7,    4.4,    1.9,  999.0
2000/11/23 19:00,  999.0,    4.1,    3.3,    6.2,  999.0,    8.8,  999.0,    7.6,    7.0,    8.3,    4.4,  999.0,  999.0,  999.0,  999.0,  999.0,  999.0,  999.0,  999.0,  999.0,   -5.1,   -6.8,   -7.1,   -6.6,   -7.1,   -8.5,  -10.3,   -8.9,   -9.7,  -11.3,  -12.0,  -13.0,  -14.3,  -14.9,  -15.1,  -15.0,  -14.8,  -13.9,  -13.3,  -12.6,  -12.6,  -11.7,   -6.5,    2.8,    5.3,    5.8,    5.7,    6.9,    8.0,    8.1,    7.1,    6.8,    6.3,    5.4,    5.4,    4.2,    3.5,  999.0
2000/11/23 19:10,  999.0,    2.4,    1.2,    3.5,    5.6,    6.6,   -0.3,   -1.1,    8.3,    3.9,   -0.4,    0.7,    3.3,    2.7,    1.0,    1.3,    1.1,   -0.7,    0.3,  999.0,   -5.4,   -8.2,  -10.1,  -10.7,  -10.9,  -10.4,   -9.9,   -9.3,   -7.1,   -7.0,   -7.1,   -9.9,   -8.7,   -8.8,   -9.2,   -8.4,   -8.3,   -8.1,   -8.6,  -11.0,  -10.8,  -11.9,   -7.0,    0.8,    3.0,    3.7,    4.6,    6.1,    6.9,    7.7,    7.7,    7.9,    5.4,  999.0,    2.0,  999.0,  999.0,  999.0
2000/11/23 19:20,  999.0,    5.6,    5.1,    5.0,    7.3,    3.9,   -1.9,  999.0,   -5.5,    1.9,   -6.6,   -6.3,   -5.1,   -4.1,   -3.6,   -2.9,   -1.3,    0.8,    3.5,    5.1,    7.2,    6.8,    5.3,    4.6,    4.7,    5.3,    5.5,    5.0,    5.8,    5.9,    6.8,    6.9,    8.1,    7.9,    9.6,   -0.9,   -0.7,   -0.1,    0.1,    1.6,  999.0,  999.0,  999.0,  999.0,  999.0,  999.0,  999.0,    5.8,    5.8,    6.3,  999.0,  999.0,  999.0,  999.0,  999.0,  999.0,  999.0,  999.0
2000/11/23 19:30,  999.0,    3.8,    1.2,    1.2,    5.1,    1.3,    4.3,    2.7,    7.3,   -1.6,    5.8,    8.0,  999.0,    8.9,    7.4,   -3.6,  999.0,  999.0,  999.0,  999.0,  999.0,  999.0,  999.0,  999.0,  999.0,  999.0,  999.0,  999.0,  999.0,  999.0,  999.0,  999.0,  999.0,  999.0,  999.0,  999.0,  999.0,  999.0,  999.0,  999.0,  999.0,  999.0,  999.0,  999.0,  999.0,  999.0,  999.0,  999.0,  999.0,  999.0,  999.0,  999.0,  999.0,  999.0,  999.0,  999.0,  999.0,  999.0
2000/11/23 19:40,  999.0,    2.1,    2.2,   -0.6,    0.7,    3.5,    2.5,    1.6,    5.2,    5.2,    7.4,   13.8,   12.6,   12.6,   14.2,  999.0,  999.0,  999.0,  999.0,  999.0,  999.0,  999.0,  999.0,  999.0,  999.0,  999.0,  999.0,  999.0,  999.0,  999.0,  999.0,  999.0,  999.0,  999.0,  999.0,  999.0,  999.0,  999.0,  999.0,  999.0,  999.0,  999.0,  999.0,  999.0,  999.0,  999.0,  999.0,  999.0,  999.0,  999.0,  999.0,  999.0,  999.0,  999.0,  999.0,  999.0,  999.0,  999.0
2000/11/23 19:50,  999.0,    3.7,    6.3,  999.0,  999.0,   10.4,   12.5,    2.2,    9.8,   10.2,    7.1,    9.9,   10.8,   11.7,   13.5,   16.5,  999.0,  999.0,  999.0,  999.0,  999.0,  999.0,  999.0,  999.0,   14.3,  999.0,  999.0,   12.4,  999.0,  999.0,  999.0,  999.0,   11.0,  999.0,    7.5,    7.6,    5.6,    8.2,    5.0,  999.0,    3.1,  999.0,  999.0,  999.0,  999.0,  999.0,  999.0,  999.0,  999.0,  999.0,  999.0,  999.0,  999.0,  999.0,  999.0,  999.0,  999.0,  999.0
2000/11/23 20:00,  999.0,    1.4,    4.0,    2.2,    5.3,    8.9,    9.4,   12.5,    9.1,   12.8,    6.1,    7.6,   13.0,    9.8,   11.0,   21.2,  999.0,   19.6,  999.0,  999.0,  999.0,   12.8,   11.4,  999.0,    9.0,    8.0,    6.5,    5.7,    4.3,  999.0,    0.8,  999.0,    1.1,  999.0,  999.0,    0.8,  999.0,    0.5,    0.4,  999.0,    0.4,    0.1,    0.9,  999.0,  999.0,  999.0,    0.4,  999.0,  999.0,  999.0,    0.5,  999.0,  999.0,  999.0,  999.0,  999.0,  999.0,  999.0
2000/11/23 20:10,  999.0,    5.2,    5.6,   10.3,    8.3,    9.8,    6.7,   -1.8,    6.2,    9.6,    9.7,    8.5,   10.6,   18.0,   15.5,   20.1,   18.6,  999.0,   17.2,  999.0,  999.0,   14.2,   11.9,   12.5,  999.0,   10.6,    6.9,    7.3,    5.1,  999.0,    1.0,    4.0,    3.6,    1.2,    1.1,    0.8,  999.0,    0.6,    0.4,    0.9,    0.0,    0.9,    0.9,  999.0,    0.2,  999.0,    0.9,    0.6,    0.9,  999.0,    1.0,    0.8,  999.0,  999.0,   -0.0,    0.5,  999.0,  999.0
2000/11/23 20:20,  999.0,    3.2,    4.2,    4.6,  999.0,    7.2,    6.4,    7.3,    8.7,   10.2,  999.0,  999.0,  999.0,  999.0,  999.0,   20.4,  999.0,  999.0,  999.0,  999.0,  999.0,  999.0,  999.0,  999.0,  999.0,  999.0,  999.0,  999.0,  999.0,  999.0,  999.0,  999.0,  999.0,  999.0,  999.0,  999.0,  999.0,  999.0,  999.0,  999.0,  999.0,  999.0,  999.0,  999.0,  999.0,  999.0,  999.0,  999.0,  999.0,  999.0,  999.0,  999.0,  999.0,  999.0,  999.0,  999.0,  999.0,  999.0
2000/11/23 20:30,  999.0,  999.0,  999.0,   -1.1,    3.1,  999.0,    2.8,    4.5,    6.7,    6.8,    5.4,   22.0,   20.9,   17.5,   22.6,   17.4,  999.0,   20.6,  999.0,  999.0,  999.0,  999.0,  999.0,  999.0,  999.0,  999.0,  999.0,  999.0,  999.0,  999.0,  999.0,  999.0,  999.0,  999.0,  999.0,  999.0,  999.0,  999.0,  999.0,  999.0,  999.0,  999.0,  999.0,  999.0,  999.0,  999.0,  999.0,  999.0,  999.0,  999.0,  999.0,  999.0,  999.0,  999.0,  999.0,  999.0,  999.0,  999.0
2000/11/23 20:40,  999.0,  999.0,    1.9,    2.9,    4.1,    2.8,    4.5,    0.4,    6.6,    1.8,    1.5,    2.6,    6.6,    7.7,    4.9,    5.7,  999.0,  999.0,  999.0,   18.5,   25.0,  999.0,   16.4,   27.5,   15.1,  999.0,   30.0,  999.0,   31.3,   23.0,  999.0,   34.1,   35.4,   16.9,   17.1,   17.4,   18.6,   19.9,   40.3,    6.1,    5.4,   23.5,   23.0,    4.5,  999.0,  999.0,  999.0,  999.0,  999.0,   41.5,   42.4,    1.2,  999.0,   42.0,   41.7,  999.0,   42.4,  999.0
2000/11/23 20:50,  999.0,   -0.6,    2.0,    0.9,  999.0,    3.8,    2.9,    2.8,    2.4,    6.4,    1.5,    3.9,    9.5,   11.7,  999.0,   12.0,   16.8,  999.0,  999.0,  999.0,  999.0,  999.0,  999.0,  999.0,   12.6,   15.5,   16.3,   11.8,   15.3,  999.0,  999.0,   19.2,  999.0,   20.6,   18.9,   18.8,  999.0,   21.0,  999.0,  999.0,  999.0,  999.0,  999.0,  999.0,  999.0,   42.4,  999.0,  999.0,  999.0,   43.2,  999.0,  999.0,  999.0,  999.0,  999.0,   42.3,   42.5,   41.7
2000/11/23 21:00,  999.0,    0.8,  999.0,   -2.0,    6.6,    2.9,    9.3,  999.0,   11.2,  999.0,    1.2,   10.4,    8.1,  999.0,   17.0,   20.8,  999.0,   17.0,   21.4,   22.1,   23.7,   23.1,   26.1,  999.0,  999.0,  999.0,  999.0,  999.0,  999.0,   33.4,  999.0,  999.0,  999.0,  999.0,   39.2,  999.0,  999.0,  999.0,  999.0,   42.0,  999.0,   42.0,  999.0,  999.0,  999.0,  999.0,  999.0,  999.0,  999.0,  999.0,   42.4,   41.5,  999.0,  999.0,  999.0,  999.0,  999.0,  999.0
2000/11/23 21:10,  999.0,    7.1,    8.3,    3.2,   -0.0,    1.3,    5.7,    1.4,   -4.1,   -2.4,    0.4,    6.4,    6.4,  999.0,  999.0,  999.0,  999.0,   11.2,   13.1,   24.6,   21.2,   22.6,   28.1,   21.3,   12.2,   30.3,   30.9,  999.0,   33.1,   30.0,   31.2,   35.6,   37.7,  999.0,   39.2,   39.4,   40.3,   35.2,   42.0,   42.4,   41.9,   41.2,   40.1,   39.2,   42.4,  999.0,   41.9,   41.8,  999.0,   42.5,  999.0,   42.0,   42.2,   42.7,  999.0,  999.0,  999.0,  999.0
2000/11/23 21:20,  999.0,  999.0,  999.0,    1.2,    3.3,    1.7,    2.0,    3.7,    1.8,    5.8,    2.9,    8.6,   10.2,   16.6,   20.7,   14.9,  999.0,   23.5,   29.5,   32.0,   27.6,  999.0,   32.5,   36.4,   34.3,   33.8,   37.2,   38.6,   39.1,   39.2,   40.3,   40.8,   41.6,   41.4,   42.3,   42.3,   42.3,   42.6,   40.8,  999.0,   42.5,   42.4,   42.1,   41.7,  999.0,   41.9,   41.5,   42.1,  999.0,   42.4,   41.8,   42.4,   42.1,   42.4,  999.0,   41.4,   41.5,   41.8
2000/11/23 21:30,  999.0,  999.0,    9.4,    6.3,   12.3,    7.7,    4.8,    1.7,    6.2,    9.1,   12.1,   11.6,   13.7,   21.2,   15.5,  999.0,  999.0,   21.2,   28.1,   23.2,   26.0,   34.6,   36.6,   35.8,   42.0,  999.0,   41.6,   41.7,   35.0,   38.8,   39.6,  999.0,  999.0,   41.2,   42.2,   41.5,   41.1,   42.1,   41.5,   42.1,   41.5,   41.9,   42.2,   41.9,  999.0,   42.2,   42.3,   42.5,  999.0,   42.1,   41.5,  999.0,   41.7,  999.0,   42.3,   41.1,  999.0,  999.0
2000/11/23 21:40,  999.0,  999.0,   -1.3,    1.9,    2.3,    2.8,    6.1,   12.6,    4.8,    7.0,    8.3,   10.3,    8.2,   15.4,  999.0,  999.0,  999.0,   24.1,   25.3,   26.4,   18.4,   26.8,   30.4,   31.6,   32.2,  999.0,  999.0,   36.8,   37.8,   38.6,   41.0,  999.0,   41.7,   42.0,   41.7,   42.0,   42.0,   41.6,   41.5,   42.3,   42.0,  999.0,  999.0,   42.4,   42.3,  999.0,   41.6,   41.9,  999.0,   42.5,   41.6,   42.0,  999.0,  999.0,   42.9,   40.8,  999.0,   42.6
2000/11/23 21:50,  999.0,  999.0,    1.3,    4.5,    5.5,    1.7,    6.9,   10.3,   13.6,   13.7,   12.9,   12.9,  999.0,   15.1,  999.0,   22.6,   20.9,   21.7,   21.3,  999.0,   30.4,   33.0,   35.4,   35.4,   38.9,   32.5,   29.9,   31.1,  999.0,   38.4,   41.7,   38.4,   42.0,   42.3,   40.5,   40.2,   41.0,  999.0,   42.0,   41.8,  999.0,   41.6,   41.5,   41.8,   41.8,   41.7,   40.9,   41.6,   41.9,   42.2,   41.4,   41.6,   41.4,  999.0,   41.6,   41.5,   41.6,   41.4
2000/11/23 22:00,  999.0,    1.6,    3.1,   -2.2,    4.1,    4.5,    7.1,    5.6,  999.0,    9.0,   12.5,    7.9,  999.0,   20.1,  999.0,  999.0,   20.8,  999.0,   24.4,   25.7,   27.4,   30.4,   29.5,   35.9,   38.7,   36.4,   38.6,   42.3,  999.0,   41.1,   42.0,  999.0,   41.5,   41.7,  999.0,   41.6,   41.4,   41.5,   41.5,   41.7,   41.9,   42.4,   41.7,   41.3,  999.0,   42.0,   41.9,   41.1,   42.0,   42.1,   42.0,   42.0,   41.8,   41.7,   41.6,  999.0,   41.9,   42.1
2000/11/23 22:10,  999.0,  999.0,    4.9,    6.3,    5.6,    4.6,    6.2,    5.8,    0.2,    3.0,  999.0,   16.5,   13.1,   20.9,   20.4,   20.6,  999.0,  999.0,   21.5,  999.0,   23.9,  999.0,  999.0,  999.0,   29.4,  999.0,  999.0,   33.6,  999.0,  999.0,   37.8,   39.2,  999.0,  999.0,  999.0,   40.9,  999.0,  999.0,  999.0,  999.0,  999.0,  999.0,  999.0,  999.0,  999.0,  999.0,  999.0,  999.0,  999.0,  999.0,  999.0,  999.0,  999.0,  999.0,  999.0,  999.0,  999.0,  999.0
2000/11/23 22:20,  999.0,   -1.8,    0.7,    3.2,   -2.7,    7.1,  999.0,   18.1,   10.4,   10.5,   18.4,   19.1,   14.5,   10.5,   10.8,    7.9,  999.0,  999.0,  999.0,  999.0,  999.0,  999.0,  999.0,  999.0,  999.0,  999.0,  999.0,  999.0,  999.0,  999.0,  999.0,  999.0,  999.0,  999.0,  999.0,  999.0,  999.0,  999.0,  999.0,  999.0,  999.0,  999.0,  999.0,  999.0,  999.0,  999.0,  999.0,  999.0,  999.0,  999.0,  999.0,  999.0,  999.0,  999.0,  999.0,  999.0,  999.0,  999.0
2000/11/23 22:30,  999.0,  999.0,    2.5,  999.0,    7.1,  999.0,   14.4,   14.1,   15.1,  999.0,   12.1,   13.6,   12.3,    9.0,   13.4,   21.0,  999.0,  999.0,  999.0,  999.0,  999.0,  999.0,  999.0,  999.0,  999.0,  999.0,  999.0,  999.0,  999.0,  999.0,  999.0,  999.0,  999.0,  999.0,  999.0,  999.0,  999.0,  999.0,  999.0,  999.0,  999.0,  999.0,  999.0,  999.0,  999.0,  999.0,  999.0,  999.0,  999.0,  999.0,  999.0,  999.0,  999.0,  999.0,  999.0,  999.0,  999.0,  999.0
2000/11/23 22:40,  999.0,  999.0,  999.0,  999.0,    4.7,  999.0,   15.1,   14.5,   14.9,   15.0,  999.0,  999.0,  999.0,   10.9,   20.4,  999.0,   21.5,  999.0,  999.0,  999.0,  999.0,  999.0,  999.0,  999.0,  999.0,  999.0,  999.0,  999.0,  999.0,  999.0,  999.0,  999.0,  999.0,  999.0,  999.0,  999.0,  999.0,  999.0,  999.0,  999.0,  999.0,  999.0,  999.0,  999.0,  999.0,  999.0,  999.0,  999.0,  999.0,  999.0,  999.0,  999.0,  -38.0,  999.0,  -38.9,  -39.3,  999.0,  999.0
2000/11/23 22:50,  999.0,    1.5,    2.2,   -0.6,   13.5,    8.5,   10.7,   14.4,   11.5,   11.7,    8.9,    7.8,   10.6,  999.0,  999.0,  999.0,  999.0,   20.6,  999.0,    5.5,  999.0,  999.0,  999.0,  999.0,  999.0,  999.0,  999.0,  999.0,  999.0,  999.0,  999.0,  999.0,  999.0,  999.0,  999.0,  999.0,  999.0,  999.0,  999.0,  999.0,  999.0,  999.0,  999.0,  999.0,  999.0,  999.0,  999.0,  999.0,  999.0,  999.0,  999.0,  999.0,  -41.9,  -41.6,  -40.4,  -41.5,  -41.7,  999.0
2000/11/23 23:00,  999.0,  999.0,  999.0,    6.6,   10.7,   11.8,   11.6,   11.7,   14.0,   10.3,   10.6,    9.7,   11.8,    9.8,  999.0,    4.3,    9.4,    3.4,    1.8,    0.3,    0.1,  999.0,  999.0,   -0.5,  999.0,  999.0,  999.0,  999.0,  999.0,  999.0,  999.0,  999.0,  999.0,  999.0,  999.0,  999.0,  999.0,  999.0,  -40.8,  999.0,  999.0,  999.0,  999.0,  999.0,  999.0,  999.0,  -40.6,  -41.7,  -41.7,  -41.5,  -41.9,  -41.5,  -41.2,  -42.2,  -41.4,  -41.9,  -41.2,  -41.3
2000/11/23 23:10,  999.0,  999.0,  999.0,    8.8,    9.9,    9.9,    8.5,    8.8,   10.0,    5.9,    7.6,    9.2,    7.8,    4.4,    6.0,    6.5,    5.9,    5.1,    4.7,    4.2,    0.9,   -2.5,   -4.7,   -6.6,  999.0,  -12.8,  999.0,  999.0,  999.0,  999.0,  999.0,  999.0,  999.0,  999.0,  999.0,  999.0,  999.0,  999.0,  999.0,  -41.6,  -40.6,  999.0,  999.0,  999.0,  999.0,  999.0,  -41.7,  -42.0,  -42.4,  -41.8,  -41.6,  -41.5,  -41.6,  -42.2,  999.0,  -41.3,  -41.8,  -41.9
2000/11/23 23:20,  999.0,  999.0,  999.0,    9.8,   11.4,  999.0,   10.7,   12.6,    6.1,    6.0,    3.8,    3.8,    4.6,    6.9,    7.4,    7.0,    7.5,    3.9,   -0.5,   -2.0,   -1.6,   -3.7,   -3.1,   -6.9,   -6.6,  999.0,  999.0,  999.0,  999.0,  999.0,  999.0,  999.0,  999.0,  999.0,  999.0,  999.0,  999.0,  999.0,  -41.7,  -41.7,  -42.0,  -42.5,  999.0,  -42.2,  -41.7,  -41.2,  -41.9,  -41.6,  999.0,  -42.2,  999.0,  -43.3,  -41.9,  -41.7,  -41.9,  -41.1,  -41.3,  -41.7
2000/11/23 23:30,  999.0,  999.0,  999.0,    9.0,   10.8,   11.3,   11.0,   12.9,   10.5,    9.1,    8.9,    9.1,    6.6,    7.2,    7.5,  999.0,    8.3,  999.0,    5.6,  999.0,  999.0,  999.0,  999.0,  999.0,  999.0,  999.0,  999.0,    1.2,  999.0,    0.9,  -25.1,  999.0,  999.0,  999.0,  999.0,  999.0,  999.0,  999.0,  999.0,  999.0,    0.9,  999.0,  999.0,  999.0,    1.2,    0.9,  999.0,  -20.8,  -41.2,  -42.1,  -20.7,  -42.5,  -42.1,  -41.9,  999.0,  -41.8,  -42.1,  -41.9
2000/11/23 23:40,  999.0,  999.0,   10.0,    8.8,    9.8,   10.1,   10.5,   10.9,   11.3,   12.4,   13.1,   13.7,  999.0,  999.0,  999.0,  999.0,    3.2,  999.0,  999.0,  999.0,  999.0,  999.0,  999.0,  999.0,  999.0,  999.0,   -0.0,   -0.3,  999.0,  999.0,    0.9,  999.0,  999.0,  999.0,    0.5,    0.9,  999.0,    0.3,   -0.1,  999.0,  999.0,    0.1,   -5.9,    0.8,    0.7,  999.0,    0.8,    1.1,    1.1,    1.7,  999.0,    0.3,    0.8,    0.8,    0.4,  999.0,  999.0,    1.0
2000/11/23 23:50,  999.0,  999.0,    9.0,    8.5,    9.9,    9.1,    9.3,    9.4,   10.0,   11.0,   10.8,   10.1,   10.5,    6.3,  999.0,    4.7,    0.8,    8.3,   12.1,    6.4,  999.0,   10.4,    2.3,    3.7,    3.4,    2.4,    1.0,    0.8,    0.9,    0.6,    0.6,    0.6,    0.6,    1.2,    0.3,    0.6,    0.8,    0.8,  999.0,    0.5,    0.7,    0.8,    0.6,    1.1,    0.7,    1.0,    1.2,    1.0,    1.3,    0.9,    0.3,  999.0,    1.0,  999.0,    0.9,    0.8,    1.3,  999.0
